GFSFLT1_500_spd_000.txt.gz
Wind_Speed
15 16 21 21 23 24 26 28 30 31 33 35 38 39 44 45 48 51 50 54 56 59 61 59 58 59 58 58 57 55 51 50
22 20 21 24 27 29 31 34 34 35 39 41 44 46 48 50 52 55 54 57 59 64 70 71 71 67 62 61 60 60 59 56
21 25 26 30 33 36 38 41 43 43 45 49 50 52 54 57 59 62 62 62 62 67 67 67 69 70 71 69 66 62 59 58
24 25 28 32 35 38 42 45 49 51 51 55 56 56 58 60 64 66 67 68 70 69 67 67 68 68 66 68 68 67 62 59
29 30 34 40 40 41 44 48 49 51 54 54 57 60 60 62 65 68 71 73 74 75 71 69 68 65 64 64 64 63 63 63
38 39 41 43 44 47 47 51 50 52 56 58 59 60 61 64 68 72 75 74 72 71 68 65 62 63 63 64 62 61 61 62
38 41 42 45 50 52 52 54 53 54 57 59 61 61 63 68 71 73 72 68 67 65 62 61 58 59 61 62 62 61 59 59
43 46 49 51 55 55 58 58 58 57 58 59 61 64 66 70 71 72 72 68 63 61 60 59 60 65 63 60 60 58 56 55
56 56 56 57 59 58 57 61 64 64 64 63 66 65 68 70 70 72 66 62 60 59 57 58 60 64 65 63 60 58 56 52
60 60 64 64 60 63 66 63 63 63 64 66 66 69 71 73 72 68 62 62 62 58 56 56 62 65 65 63 60 55 52 50
63 65 67 66 64 68 67 66 64 64 65 65 67 71 75 72 68 64 63 62 60 57 56 62 64 67 64 59 56 54 54 52
65 65 67 67 67 66 66 66 63 61 64 69 71 72 71 67 65 63 61 59 57 56 59 61 63 60 59 57 57 58 61 64
63 63 67 66 65 64 64 63 63 67 70 73 72 74 73 66 62 60 58 56 53 54 57 57 57 58 60 60 63 68 72 74
64 65 67 65 64 63 63 67 71 72 73 75 78 77 68 62 60 58 56 52 52 53 54 56 58 61 64 69 73 74 74 74
64 63 63 64 63 63 68 72 75 76 77 80 82 71 64 63 59 55 52 50 51 52 55 60 64 69 71 71 73 74 75 74
60 63 65 65 67 70 74 76 78 78 82 83 77 68 65 59 53 49 49 50 52 56 62 66 67 69 71 73 73 72 70 63
65 65 66 68 72 75 76 80 81 83 85 78 70 67 61 54 50 50 50 53 58 63 64 65 68 70 71 69 66 56 44 38
69 70 72 74 78 79 81 82 83 83 77 71 68 61 53 51 50 52 55 59 61 62 64 68 68 67 61 53 44 38 31 28
72 74 76 79 80 81 82 83 84 78 71 65 58 54 52 51 52 56 60 60 61 64 66 66 62 53 44 40 33 27 28 30

GFSFLT1_500_spd_003.txt.gz
Wind_Speed
15 14 16 20 23 26 29 30 32 35 36 39 42 43 44 47 49 51 51 52 54 55 56 57 57 60 63 64 64 64 63 58
24 23 23 24 25 27 31 36 39 39 43 45 46 47 48 50 52 54 55 56 58 60 60 61 62 65 68 68 68 68 68 67
26 27 28 29 32 36 39 40 42 45 48 48 50 51 51 54 56 58 60 61 61 61 62 65 68 71 72 73 73 72 71 67
29 34 36 38 39 38 41 45 48 51 52 52 54 54 53 55 58 60 62 63 63 66 68 70 73 74 72 70 66 66 67 65
35 37 37 38 40 43 44 47 49 52 56 58 57 55 57 58 59 63 63 63 66 69 71 73 73 73 67 63 61 59 62 64
33 40 42 41 39 39 43 47 49 51 51 53 57 58 59 59 60 61 64 68 68 70 73 74 73 69 64 61 60 59 59 59
48 47 45 42 41 44 48 49 52 54 57 55 53 55 56 59 61 62 64 67 69 71 71 69 63 60 59 61 59 60 58 60
53 53 52 54 52 54 55 57 61 60 60 61 62 62 62 62 63 64 66 65 64 65 65 63 60 61 59 54 58 63 60 64
57 60 61 61 60 60 60 63 65 61 58 60 62 62 62 65 68 69 68 69 66 62 63 62 63 60 58 56 61 62 63 64
62 64 64 64 63 62 63 65 64 63 62 62 61 62 66 68 68 68 70 69 65 61 60 61 62 65 66 67 64 64 64 62
59 57 57 60 60 61 64 64 62 63 62 60 63 67 69 69 68 69 66 62 60 59 60 62 62 61 61 60 60 60 61 59
61 61 61 63 64 62 60 62 61 61 61 66 69 70 72 71 70 67 61 57 57 57 58 58 56 56 56 58 59 58 57 56
55 55 57 57 58 59 60 62 63 65 67 70 72 74 75 74 72 63 57 58 57 56 54 54 54 54 55 56 58 58 59 62
55 54 57 59 61 63 65 67 69 72 73 75 76 77 76 77 72 62 59 57 52 51 51 52 53 54 55 58 62 64 66 66
54 57 59 62 65 67 68 70 74 77 78 78 79 79 78 73 63 58 53 50 49 49 51 52 53 56 60 62 64 65 66 67
57 60 60 63 66 69 72 74 76 78 82 83 82 80 77 68 58 51 49 48 47 48 51 54 57 59 60 62 64 64 63 62
63 66 69 70 72 74 77 79 80 83 85 85 82 78 67 58 52 49 48 48 48 51 55 54 55 58 61 62 61 59 54 45
68 72 73 74 77 79 80 82 84 85 86 81 75 63 56 51 48 48 48 49 52 52 52 55 58 60 61 58 54 44 34 27
73 75 77 78 79 81 83 84 85 84 79 74 64 56 51 49 49 48 48 52 52 52 54 58 60 60 55 50 37 27 24 24

GFSFLT1_500_spd_006.txt.gz
Wind_Speed
19 20 21 24 26 28 30 32 36 40 41 42 45 44 46 47 49 51 52 54 55 57 57 57 58 58 58 59 59 60 63 64
24 27 29 32 34 37 41 43 44 44 45 48 49 51 52 53 55 56 56 55 57 59 60 60 62 62 61 62 63 65 68 70
28 28 34 34 33 37 40 44 46 48 49 52 54 55 55 56 57 58 60 59 59 60 61 63 63 61 61 63 65 67 69 70
32 29 28 30 33 33 33 36 44 49 52 54 55 56 55 55 58 59 59 60 61 61 63 63 64 63 63 64 67 68 70 71
31 32 32 33 33 35 35 38 42 47 49 51 55 57 60 60 60 60 60 61 61 62 63 63 63 66 68 68 70 69 65 63
34 37 40 40 43 45 46 48 48 52 51 51 55 57 55 56 57 59 59 59 58 59 63 66 67 66 67 71 74 74 70 66
42 46 49 48 51 48 47 49 52 54 57 57 55 56 59 60 60 60 60 61 64 66 64 64 66 69 69 70 70 69 70 70
46 50 50 55 55 53 53 53 57 58 60 61 61 60 61 60 61 63 67 68 69 67 67 68 67 66 67 60 71 68 68 72
49 52 55 55 56 60 59 58 60 61 61 61 62 62 62 62 64 67 68 69 71 70 69 67 65 60 65 67 69 62 64 74
48 51 51 54 57 57 58 57 56 58 60 62 63 64 65 67 69 70 68 69 69 69 66 60 64 54 60 70 70 70 71 70
49 52 56 53 52 52 53 57 59 62 64 66 67 69 71 72 73 74 74 74 74 70 62 59 62 66 69 71 70 70 69 66
54 55 52 55 55 55 57 59 61 63 66 68 70 72 73 75 77 78 78 77 74 67 62 59 60 62 66 67 67 65 64 61
52 50 52 53 57 60 59 61 65 68 68 69 71 74 76 78 78 79 78 75 69 62 58 56 57 58 59 60 61 61 60 60
55 53 51 58 62 61 63 67 68 70 72 75 75 75 76 76 78 76 72 66 61 55 52 52 52 54 56 57 57 58 59 60
58 55 55 65 64 67 69 73 74 74 75 76 77 77 78 78 75 71 62 56 53 51 50 51 51 52 54 56 56 56 57 58
57 56 64 66 69 73 78 80 78 78 78 79 80 81 79 75 71 64 54 49 49 48 48 49 50 54 53 52 54 56 56 55
62 65 65 68 75 81 81 79 78 80 81 83 84 81 75 69 62 55 50 50 48 48 48 51 52 50 52 54 56 53 52 51
65 66 68 76 78 79 80 82 81 82 85 87 84 76 63 53 50 49 49 47 46 47 51 51 49 51 54 55 52 51 48 35
65 71 74 75 79 80 82 82 84 86 89 85 76 63 55 49 46 46 46 45 45 49 50 49 50 53 54 51 50 43 29 24

GFSFLT1_500_spd_009.txt.gz
Wind_Speed
21 21 25 29 32 35 35 37 41 43 44 46 48 50 50 50 51 53 54 56 57 57 58 59 61 61 60 60 60 61 62 62
26 26 26 26 30 31 33 36 39 43 46 48 49 50 51 53 55 56 55 56 58 60 60 61 62 61 61 61 62 63 64 64
25 28 30 29 32 31 32 34 40 44 48 50 50 51 52 52 54 58 61 63 64 63 61 61 62 63 63 62 60 60 61 61
30 30 28 30 31 32 36 40 44 48 50 53 55 52 54 53 55 57 60 62 62 63 63 63 61 61 61 62 61 60 59 60
30 29 30 32 33 38 40 44 49 51 51 52 53 56 56 57 60 62 61 61 63 63 62 61 62 64 66 67 66 66 66 63
32 31 33 37 40 44 47 53 55 54 54 55 57 58 57 56 57 57 58 60 60 60 61 63 65 66 67 70 68 68 69 68
34 40 40 42 47 49 54 57 59 59 58 59 59 58 58 59 61 63 63 65 66 68 69 69 67 65 63 64 66 67 69 68
43 45 46 50 53 56 58 59 59 57 57 56 56 58 60 62 64 66 69 71 71 70 69 69 69 66 66 66 67 65 66 65
49 50 51 53 55 57 58 57 56 56 58 60 61 63 65 67 70 72 73 74 76 76 76 74 72 68 65 64 63 64 58 63
50 50 49 53 54 54 54 53 52 57 60 62 64 66 70 71 73 75 78 80 81 80 77 72 71 67 64 55 62 65 68 70
46 47 50 52 51 54 54 56 60 63 65 68 70 71 73 76 79 81 84 84 82 80 76 73 69 66 59 58 64 67 70 71
47 48 49 50 56 59 60 62 64 68 70 71 73 78 81 79 78 77 77 78 79 76 71 68 65 61 58 59 62 65 69 72
45 48 53 57 59 60 61 62 66 70 72 77 82 81 82 81 82 80 80 77 73 69 65 61 58 55 53 54 55 57 58 59
52 54 59 58 61 64 65 71 73 75 79 83 84 83 82 81 82 84 76 71 66 60 57 53 49 49 51 52 53 53 54 55
56 57 59 57 60 65 72 74 77 80 83 83 83 85 85 85 91 89 78 65 55 51 49 48 49 50 49 49 48 51 56 55
57 58 59 57 58 65 73 77 78 81 83 84 87 94 91 87 86 84 66 53 49 49 48 48 47 47 47 47 51 52 52 54
58 58 58 61 68 72 77 81 83 84 84 87 88 86 88 88 87 62 49 47 48 53 51 48 45 45 48 49 49 50 52 51
58 61 68 71 71 75 77 87 87 87 86 84 82 89 91 74 55 48 46 47 48 48 45 43 44 47 48 48 49 51 48 47
64 67 69 71 75 78 87 86 88 90 89 84 87 90 81 63 50 46 46 46 44 43 43 46 48 49 48 49 49 45 43 45

GFSFLT1_500_spd_012.txt.gz
Wind_Speed
25 27 27 25 29 33 35 38 41 43 43 42 42 45 49 51 52 54 54 54 54 54 57 59 60 61 61 60 60 60 60 60
27 29 30 32 33 33 35 39 39 41 44 47 48 52 54 54 53 53 54 57 58 59 59 58 59 59 60 59 59 60 60 61
28 29 30 30 31 32 37 41 42 47 50 50 53 55 56 56 55 53 54 56 58 60 61 60 60 62 62 62 59 57 56 56
30 31 29 32 33 36 40 43 45 51 52 53 56 54 54 54 53 54 54 54 56 58 60 62 63 64 63 63 64 63 63 61
32 30 34 32 35 40 42 44 48 53 54 56 56 54 51 52 53 54 54 57 58 60 61 63 65 66 67 68 68 68 68 68
32 35 36 38 42 44 47 48 52 52 55 54 54 55 56 56 58 59 61 62 64 66 67 68 69 70 69 69 70 70 71 70
37 40 42 44 46 47 49 50 49 52 53 55 57 58 60 62 62 63 65 67 68 70 72 74 75 76 77 78 78 75 72 65
41 43 44 46 46 48 51 52 52 52 57 59 60 63 66 67 69 71 72 72 72 76 78 78 78 78 78 77 73 71 70 67
46 47 47 47 49 51 54 53 55 58 60 62 62 64 68 72 75 74 76 80 82 79 78 80 79 80 80 79 77 72 68 60
47 46 46 49 51 53 56 58 58 62 65 64 66 65 70 75 77 80 84 85 85 86 83 84 84 82 80 75 67 63 58 59
43 44 46 50 54 56 57 60 63 65 69 73 74 77 81 78 83 86 88 89 87 86 87 85 83 81 70 62 60 58 57 53
42 45 50 54 54 58 63 64 67 68 70 72 75 77 81 85 86 88 88 88 88 89 84 80 74 64 57 55 53 52 51 52
45 50 53 58 62 64 66 66 67 68 68 68 75 80 84 88 91 91 89 89 88 82 75 68 58 53 51 49 48 48 49 50
54 58 61 64 65 66 67 67 68 70 75 79 79 83 84 86 94 94 94 90 84 77 66 51 45 45 46 47 47 48 49 50
62 62 63 66 68 69 69 70 74 78 78 78 80 84 86 91 96 96 90 82 71 55 46 44 44 47 50 52 50 47 46 45
64 64 66 66 68 70 72 73 77 78 81 81 83 90 97 97 98 88 78 66 48 42 44 47 51 55 55 50 46 44 45 47
64 64 68 69 71 71 71 74 69 72 81 87 96 100 99 93 87 74 60 46 44 45 47 49 50 49 47 44 44 44 47 48
67 68 68 71 73 74 75 77 77 77 85 91 89 88 95 80 68 57 49 46 44 45 45 45 44 43 43 45 47 48 48 48
72 74 76 74 75 78 80 80 80 91 96 89 88 94 82 66 58 52 50 46 44 43 43 44 45 48 49 50 50 48 48 49

GFSFLT1_500_spd_015.txt.gz
Wind_Speed
20 23 28 30 30 32 36 38 39 39 40 41 45 46 49 48 51 51 49 49 49 49 48 49 50 51 52 52 53 53 52 53
24 28 31 32 33 35 37 40 41 41 43 47 49 50 54 52 53 53 53 51 51 53 54 55 56 57 57 58 60 61 60 59
30 32 32 34 34 35 38 39 39 44 47 49 49 52 52 52 52 52 52 54 54 53 55 56 58 59 59 59 60 62 64 65
32 33 33 35 35 38 39 40 44 47 49 51 52 52 51 51 53 55 57 57 57 59 60 60 61 62 63 65 66 66 68 67
31 32 35 35 37 39 41 43 48 49 48 49 51 52 53 54 58 59 59 60 62 63 64 65 67 66 66 68 71 72 73 73
31 34 35 37 41 43 45 47 48 47 48 51 53 55 56 60 62 63 64 64 66 67 68 70 70 72 74 75 71 69 71 72
34 36 39 41 43 45 46 46 48 50 53 55 57 59 62 65 68 69 69 71 72 74 77 77 77 79 79 77 78 77 75 75
39 40 42 43 43 44 45 48 50 53 56 59 62 65 68 70 71 74 75 76 77 81 81 82 81 80 80 78 76 76 78 79
39 41 43 45 47 48 49 53 57 60 61 64 68 72 73 75 75 75 71 76 79 82 85 85 83 81 83 82 83 82 79 78
41 43 45 47 49 52 56 61 64 65 66 70 73 75 76 77 78 78 79 82 86 88 88 87 87 88 91 91 87 80 74 70
42 45 46 50 53 57 61 64 66 68 71 74 75 77 76 76 77 80 83 82 85 89 90 91 97 98 95 86 77 67 60 55
46 46 49 52 58 63 65 68 70 72 74 76 76 77 77 78 82 82 83 86 89 93 99 102 95 82 73 64 54 50 48 47
47 49 54 60 63 65 68 71 73 75 75 75 78 80 80 82 81 81 85 90 93 94 91 86 75 59 49 45 48 50 49 46
52 57 60 62 66 70 71 74 76 77 77 79 78 79 80 85 85 87 90 95 96 91 79 64 52 47 44 45 49 49 50 51
58 60 63 66 69 70 73 75 75 78 79 79 80 82 81 80 86 94 95 96 87 69 57 49 45 45 47 50 52 52 53 51
62 66 69 70 72 74 77 80 80 79 78 78 80 83 86 90 94 91 85 75 59 52 49 48 48 49 50 50 50 48 45 44
67 69 70 71 76 79 79 78 78 78 81 80 84 88 91 97 95 71 62 54 49 49 50 48 46 46 46 46 45 43 43 43
71 71 74 78 82 82 79 78 79 78 80 87 94 95 90 84 67 56 51 52 51 48 47 46 46 47 47 48 48 48 48 48
71 71 73 80 86 82 82 84 82 81 87 87 91 82 68 61 54 52 53 51 49 49 51 52 52 54 54 54 53 52 51 50

GFSFLT1_500_spd_018.txt.gz
Wind_Speed
20 23 26 30 32 33 35 36 36 39 41 41 42 45 47 48 49 50 51 50 50 50 51 52 53 55 56 57 57 58 58 57
23 26 30 33 34 36 37 38 39 41 43 45 48 50 52 52 51 52 52 52 53 54 55 56 58 59 59 60 61 62 62 61
27 30 33 35 36 37 39 39 41 44 47 48 50 53 53 51 52 53 54 55 57 58 61 63 63 64 65 65 66 65 63 63
30 33 35 36 37 40 41 41 44 47 50 51 51 51 51 53 56 57 59 61 64 65 67 68 69 69 69 69 69 69 69 69
31 33 36 37 40 42 43 45 49 50 50 50 51 52 54 58 60 62 63 65 66 68 71 73 73 73 74 73 74 76 75 73
33 35 38 41 43 44 45 46 46 48 50 52 53 56 59 62 63 64 71 73 74 76 77 77 76 74 74 74 77 78 79 78
35 38 40 42 43 43 43 45 48 50 52 53 57 62 65 66 68 69 73 76 77 79 78 78 76 76 77 79 81 81 81 80
39 39 40 41 41 43 46 49 51 54 56 60 64 68 69 71 72 74 76 78 79 79 79 79 80 82 84 80 80 83 81 82
39 40 39 43 46 49 52 53 55 59 63 67 68 70 73 75 75 76 77 78 80 81 81 82 83 83 81 86 88 88 89 94
37 40 43 47 51 52 53 56 59 63 66 67 68 70 73 75 77 77 78 81 81 81 80 82 85 84 86 92 93 95 92 83
42 44 48 50 52 55 58 60 63 65 67 69 72 74 77 77 79 80 80 79 80 81 84 85 85 88 94 92 88 74 64 60
43 46 48 52 56 59 62 64 67 69 69 72 76 78 80 80 80 80 80 79 82 85 86 91 94 89 79 71 58 50 49 48
47 50 54 57 60 62 65 68 69 70 73 78 79 80 81 79 79 81 83 84 88 93 93 86 75 68 57 48 47 47 50 51
52 55 57 60 64 67 71 71 70 75 78 84 85 84 81 80 81 81 85 90 92 85 74 66 56 48 46 47 49 49 50 51
57 60 64 68 69 73 74 75 77 79 79 87 90 86 84 84 84 85 86 88 71 63 55 50 49 49 48 48 49 50 51 51
61 64 68 72 76 77 75 74 77 78 87 94 91 88 87 86 86 85 74 65 58 52 51 52 52 49 47 46 47 48 49 49
67 72 76 79 79 77 76 75 76 86 94 93 91 88 88 84 78 69 61 54 51 54 52 50 51 51 50 51 50 51 51 52
72 78 80 80 77 74 76 81 88 90 90 88 86 86 82 73 63 57 51 51 52 51 52 54 55 56 54 54 54 54 54 55
77 78 78 78 73 76 81 86 85 87 84 83 82 78 68 60 52 49 50 51 51 53 55 57 57 57 55 54 53 52 52 51

GFSFLT1_500_spd_021.txt.gz
Wind_Speed
21 25 25 28 30 33 36 38 39 40 43 43 46 48 51 52 53 52 52 51 51 53 55 56 56 58 58 59 62 62 63 64
24 26 29 31 34 36 39 40 42 44 46 47 49 52 55 55 55 54 53 53 55 57 60 62 62 62 63 65 66 68 68 68
26 28 31 34 37 40 41 44 45 47 49 50 51 54 57 57 56 56 56 57 60 63 64 68 66 66 67 71 72 72 72 71
28 31 35 38 41 42 44 46 47 49 52 54 55 57 56 56 58 59 60 62 66 67 68 66 69 73 75 76 76 76 76 74
33 36 38 41 41 44 46 49 51 51 53 54 54 55 56 58 60 61 65 68 67 68 69 71 73 75 76 76 75 74 75 75
36 38 41 42 44 47 50 51 51 51 51 53 55 56 58 61 63 66 68 68 71 73 74 74 75 75 76 76 76 77 77 77
40 41 43 44 45 47 47 46 48 51 52 54 55 58 61 65 68 70 71 72 73 75 76 76 77 79 79 80 79 79 79 79
41 43 44 44 43 43 44 48 51 54 56 58 60 64 67 69 72 73 73 74 76 77 78 78 78 79 78 79 79 80 81 83
41 41 41 41 45 47 50 53 55 58 61 63 67 69 72 74 74 74 76 76 77 78 76 77 78 80 79 80 81 82 85 86
38 38 43 43 46 49 52 55 59 61 63 66 69 73 76 75 73 76 79 81 85 80 80 80 81 81 84 86 87 90 92 84
38 40 43 46 50 53 57 60 62 66 71 74 77 77 76 77 80 83 84 88 90 85 84 83 82 81 86 89 86 75 69 67
43 45 47 51 54 58 61 65 68 72 76 78 78 77 76 77 80 84 88 93 90 87 85 83 81 78 71 65 59 54 52 50
45 49 53 56 59 62 66 70 74 79 80 80 78 78 80 81 84 90 89 90 87 83 80 73 66 60 54 50 48 48 48 48
48 51 56 60 65 69 72 76 79 80 80 80 77 77 82 87 87 88 88 86 82 74 66 59 53 49 49 51 50 49 48 49
53 57 62 66 70 74 78 81 82 80 78 78 79 80 83 84 85 85 83 78 70 62 53 49 50 51 51 49 50 50 50 50
56 62 66 70 75 78 81 82 79 78 79 80 81 82 84 84 83 82 78 67 60 53 50 51 51 52 51 52 53 53 54 54
62 67 73 77 80 84 83 80 79 79 80 81 83 83 81 81 79 75 64 60 53 51 52 52 53 54 55 56 56 55 53 52
70 75 79 80 81 85 83 81 82 82 83 84 81 78 78 77 74 65 59 55 51 52 53 54 55 58 58 57 55 53 50 49
76 80 81 80 80 79 81 82 82 83 84 82 76 76 77 73 66 59 56 52 51 53 54 55 58 60 58 54 51 49 46 44

GFSFLT1_500_spd_024.txt.gz
Wind_Speed
29 25 27 26 27 31 34 39 40 41 45 45 48 49 50 52 53 57 54 55 53 53 54 54 55 57 60 61 60 60 60 62
28 26 29 29 32 34 39 40 43 45 46 50 51 53 55 56 57 57 55 57 55 57 58 59 61 64 65 65 66 65 66 68
26 29 30 32 35 38 41 44 46 46 49 52 52 54 56 57 57 57 57 60 59 60 62 65 68 69 69 69 69 69 70 69
28 30 33 36 39 41 44 46 48 48 52 55 54 54 54 55 58 60 60 60 64 68 71 72 72 72 71 73 74 77 75 73
31 34 37 39 41 43 45 49 50 51 51 51 52 53 56 58 59 61 64 67 70 72 74 76 77 75 74 76 76 75 76 75
37 38 40 41 42 44 47 50 52 50 49 51 54 55 57 60 63 65 68 70 73 76 78 79 78 77 79 79 76 76 77 76
40 41 45 44 43 43 44 46 48 51 52 53 54 57 60 63 65 69 72 76 78 79 80 80 80 82 85 86 84 84 78 78
41 43 45 47 48 43 41 43 47 50 54 59 63 64 66 70 73 76 79 80 80 79 80 80 82 85 86 87 88 85 84 82
43 44 44 43 42 43 45 47 50 55 58 62 66 70 72 76 79 82 82 78 78 78 79 81 84 87 87 86 87 86 85 84
41 41 40 40 43 45 49 52 55 59 62 64 68 72 77 81 81 80 78 77 78 80 83 87 84 85 85 83 82 80 78 75
38 37 40 43 46 48 51 55 59 64 69 73 78 82 84 81 78 79 78 77 78 80 81 83 83 82 79 75 68 62 57 54
38 39 41 43 47 52 56 62 66 71 76 80 81 83 82 78 77 77 76 78 80 81 82 81 81 76 69 60 54 48 45 45
38 41 45 49 54 60 65 70 76 79 81 84 82 80 80 78 77 78 79 79 79 78 78 76 67 60 55 51 47 47 47 47
43 46 49 54 60 64 72 76 79 82 82 82 80 80 79 77 79 78 78 77 75 74 71 63 56 52 49 50 49 50 50 49
48 52 57 62 68 73 78 81 83 84 80 80 80 82 83 81 82 81 78 76 75 71 61 55 52 49 50 50 51 51 52 53
51 56 63 69 75 79 82 85 85 85 83 83 83 86 85 80 80 78 76 75 70 61 56 54 50 50 51 52 52 55 57 55
58 64 71 77 81 84 87 89 86 87 87 86 87 87 86 79 78 75 72 67 60 55 54 51 50 51 53 53 57 59 57 53
66 71 76 79 83 85 85 87 85 85 87 89 88 89 81 74 72 69 64 60 57 53 48 47 50 52 54 57 56 53 50 47
70 75 79 82 83 86 85 84 86 88 88 88 82 83 77 72 73 66 61 56 51 45 44 48 50 54 58 55 50 48 44 41

GFSFLT1_500_spd_027.txt.gz
Wind_Speed
25 26 24 26 28 28 32 35 40 43 46 46 46 49 50 54 55 54 53 52 51 54 56 55 57 58 59 60 63 65 64 64
27 29 30 27 30 33 36 40 42 45 47 49 51 52 54 55 55 53 53 55 56 57 58 60 62 63 64 66 68 70 70 72
28 29 31 32 34 38 40 41 44 47 49 50 51 53 53 53 53 56 57 58 60 62 63 65 66 67 69 71 74 75 77 80
26 31 32 34 38 40 43 44 46 48 49 50 49 48 49 51 54 56 59 62 64 66 68 70 73 76 78 81 82 82 81 78
25 31 35 39 41 42 44 46 45 45 47 47 47 48 50 53 56 59 60 63 67 72 74 77 80 82 83 85 84 82 81 80
32 35 37 38 40 43 44 45 46 47 43 43 45 49 53 56 59 63 66 69 72 75 79 81 82 83 82 80 81 80 79 80
39 39 39 39 39 39 39 40 45 47 48 50 51 53 55 59 64 68 72 75 78 80 82 83 81 80 81 81 81 81 82 83
40 43 44 43 41 38 38 39 41 44 46 51 55 61 65 70 75 79 80 82 83 84 82 80 79 80 80 79 80 81 82 81
41 44 42 41 42 42 42 43 44 46 50 55 59 66 72 76 79 80 82 82 81 78 77 78 78 78 79 80 80 80 81 81
40 42 39 38 38 41 42 45 49 54 59 65 70 75 78 81 81 82 80 78 78 77 78 79 79 79 79 78 77 75 70 65
36 36 37 39 39 43 47 51 56 62 68 72 75 78 81 83 83 81 79 79 79 80 80 78 77 77 75 72 67 59 54 50
34 33 35 38 43 46 51 56 62 68 72 76 81 83 86 85 81 80 82 82 82 79 77 75 72 70 67 63 56 51 47 44
32 35 39 44 49 54 59 63 69 73 77 80 84 86 85 83 79 79 81 81 77 74 70 67 65 61 57 53 51 47 45 46
38 41 46 49 54 59 65 71 75 79 82 85 86 85 85 82 80 82 83 80 77 67 65 61 58 55 53 51 47 44 46 49
42 47 50 55 60 65 71 75 79 83 86 87 87 90 92 91 91 91 87 82 68 65 64 61 57 54 51 45 43 46 48 49
46 50 55 59 64 70 75 79 82 85 86 90 91 91 93 96 92 83 75 71 67 68 64 59 54 47 42 42 45 48 51 54
49 54 58 64 69 73 78 83 87 89 91 93 93 93 93 85 74 65 59 62 70 67 61 55 43 40 43 45 47 51 52 50
54 59 66 71 76 81 84 87 89 91 92 92 93 90 84 74 65 52 56 64 67 59 48 42 38 41 44 47 50 50 49 47
60 66 71 76 80 82 83 86 87 87 90 92 90 86 78 69 64 59 55 49 53 55 38 37 40 44 46 51 50 49 48 47

GFSFLT1_500_spd_030.txt.gz
Wind_Speed
24 24 21 23 23 27 29 31 36 40 42 42 44 44 46 49 49 48 47 47 48 48 50 51 52 53 54 56 58 61 63 64
25 26 25 28 29 32 31 40 43 46 49 49 49 51 52 52 50 48 48 49 51 54 56 58 60 62 63 65 67 69 72 74
24 25 23 26 31 34 41 44 48 51 51 51 52 53 53 52 52 52 54 56 58 60 63 66 69 71 74 75 75 77 77 78
21 23 27 29 33 37 40 44 46 48 49 50 51 50 48 49 51 53 55 58 61 65 70 74 76 78 81 83 84 86 86 85
23 23 27 32 36 38 40 43 46 48 49 49 47 47 49 51 52 55 59 63 68 72 76 78 81 83 86 88 88 86 85 83
22 32 33 36 37 40 42 44 46 46 43 41 42 45 47 49 54 58 61 67 71 75 78 81 82 84 83 82 81 80 81 81
34 39 37 39 39 42 45 46 44 42 41 41 41 45 50 56 62 67 71 74 78 81 82 84 84 83 82 81 80 81 81 82
35 34 40 39 44 43 40 39 38 38 38 42 47 53 58 65 70 74 78 81 84 86 87 85 82 80 80 81 82 83 84 84
32 41 46 44 39 34 33 32 33 36 41 47 53 59 66 71 75 79 83 86 89 89 86 83 82 82 82 84 85 84 83 82
44 43 39 36 35 33 35 38 41 46 52 57 62 68 72 77 81 85 87 88 88 86 85 86 84 84 84 83 81 76 71 68
40 32 33 32 34 37 41 45 49 55 58 63 68 73 77 82 85 86 86 86 87 87 86 85 82 80 74 69 67 62 60 58
33 35 34 35 38 43 46 50 54 59 65 69 73 78 82 85 85 83 84 87 88 87 85 81 73 60 62 62 60 56 56 56
32 33 36 39 43 47 51 56 61 66 69 73 77 82 84 85 87 88 89 92 92 87 78 68 60 63 66 72 68 57 53 49
35 38 41 44 47 51 55 61 66 70 73 77 81 84 86 88 90 95 97 96 86 67 62 64 59 59 66 73 60 49 44 44
38 41 44 48 52 56 61 65 69 73 77 80 82 87 93 97 97 98 96 90 78 49 59 53 57 65 69 61 47 45 46 47
40 44 48 51 56 60 64 68 72 75 80 86 91 94 95 95 97 96 90 76 70 55 53 58 65 69 61 49 45 46 46 49
43 47 50 54 59 63 67 71 75 82 86 89 91 91 94 97 96 90 76 66 51 55 55 58 61 52 48 42 45 45 49 51
46 49 54 57 62 67 71 76 81 83 86 89 90 91 94 93 85 74 62 52 46 47 45 44 46 40 39 43 45 48 49 49
49 54 58 61 66 72 76 78 82 84 87 87 88 90 90 84 73 63 58 50 41 36 37 40 32 37 41 43 47 48 48 45

GFSFLT1_500_spd_033.txt.gz
Wind_Speed
16 18 17 22 23 21 17 27 27 34 42 44 46 45 46 45 48 47 47 44 44 43 43 44 46 50 53 56 58 59 60 61
19 20 23 23 19 19 25 28 37 44 46 48 49 50 52 52 52 50 46 46 46 47 50 54 58 61 63 65 65 67 68 70
24 23 25 22 22 28 32 38 43 46 49 50 52 53 54 54 52 50 49 48 51 55 59 63 67 69 72 75 77 78 79 80
23 26 22 22 26 31 35 41 46 48 50 52 53 54 54 51 49 48 49 53 57 62 67 70 74 77 79 81 83 85 86 86
26 25 28 27 31 38 43 45 49 49 50 52 53 52 50 50 51 54 58 61 65 69 73 76 78 81 83 84 85 86 86 85
26 27 32 36 39 42 42 46 48 52 51 49 45 44 45 49 52 56 60 64 69 72 75 79 82 84 86 87 86 85 84 84
26 30 34 38 40 39 43 47 51 45 42 41 41 44 48 52 56 61 65 69 73 78 82 85 87 87 86 86 86 87 87 89
31 37 37 36 36 44 46 43 40 37 37 40 43 48 53 58 63 68 71 75 79 83 86 87 86 85 86 87 88 88 87 87
32 31 41 36 44 43 41 36 33 35 39 43 48 54 58 63 66 70 76 82 87 89 90 91 92 92 92 93 96 91 85 80
40 44 47 44 44 42 33 34 37 40 44 49 54 59 64 69 74 79 84 88 90 91 93 93 96 98 99 98 93 81 67 66
36 38 38 40 35 32 36 40 43 47 52 56 61 65 70 76 80 83 87 90 91 93 96 98 100 99 94 78 63 62 63 65
31 33 34 34 34 39 42 45 48 53 57 62 66 70 74 78 81 86 89 93 96 99 100 99 97 81 60 59 65 67 65 65
35 35 36 36 40 43 46 49 53 58 61 65 70 74 79 83 88 91 95 97 99 98 99 96 84 64 54 58 64 62 62 69
38 39 38 40 43 46 50 54 57 61 64 69 74 78 82 87 90 94 95 97 97 99 94 80 66 57 54 59 62 65 70 66
41 42 41 43 47 50 53 57 61 64 69 73 78 82 87 90 92 95 98 98 100 97 81 67 59 52 56 61 60 52 50 47
39 41 43 46 50 54 58 61 65 68 73 78 81 86 90 91 93 95 97 97 94 77 68 63 51 50 56 55 42 43 45 48
40 42 45 49 53 56 60 65 69 72 77 80 84 88 90 91 94 95 95 92 73 64 59 50 41 38 37 33 39 44 47 48
44 46 49 52 55 60 65 69 72 76 79 82 86 88 89 90 91 93 92 71 61 50 38 27 25 27 32 37 41 44 46 48
47 49 51 54 59 64 68 72 76 80 83 86 87 86 87 89 91 90 72 58 46 32 29 29 31 33 37 38 42 45 47 44

GFSFLT1_500_spd_036.txt.gz
Wind_Speed
11 12 13 14 18 21 20 18 31 29 33 40 44 46 47 48 50 50 50 51 49 46 43 40 42 46 50 53 57 59 62 65
13 15 20 21 20 19 18 21 36 37 39 45 46 46 53 53 53 52 51 50 46 43 44 49 53 56 60 63 65 69 71 73
17 16 20 21 19 20 28 34 39 45 47 50 52 53 53 55 54 52 50 46 45 48 53 58 62 66 69 72 74 77 79 81
21 21 24 28 28 29 33 36 39 45 49 50 53 55 56 54 51 48 46 49 55 59 63 66 69 72 74 76 78 80 82 83
27 25 29 31 29 33 37 40 44 48 50 53 55 54 50 49 47 49 53 56 58 61 65 68 71 75 77 80 82 84 85 88
27 30 33 28 33 38 42 43 46 45 50 52 49 46 46 47 50 53 55 58 62 66 69 73 75 79 81 85 87 90 92 93
27 30 31 30 39 46 47 37 49 47 46 48 47 44 45 48 51 55 59 64 67 70 74 77 81 85 90 92 93 95 96 96
29 30 31 34 40 40 51 45 48 45 45 44 44 46 49 52 56 60 64 67 71 76 81 84 87 90 93 94 97 99 100 99
27 28 34 39 47 49 49 48 46 43 41 44 47 50 52 56 60 64 68 74 79 82 86 90 92 93 96 100 102 103 103 95
25 32 37 40 43 45 47 48 42 41 44 46 49 53 57 61 64 69 75 80 83 86 90 93 95 98 103 105 105 103 87 73
27 32 36 39 42 44 45 40 42 45 46 50 54 58 62 67 71 75 80 83 87 92 95 97 100 102 104 106 95 79 68 54
29 32 35 38 40 41 40 42 46 48 52 56 59 62 67 72 76 81 84 88 93 97 98 100 103 105 106 88 74 68 54 55
31 34 36 39 42 43 45 47 50 53 56 59 62 67 73 77 81 86 89 92 95 96 97 99 101 102 86 72 66 54 57 61
37 38 40 41 44 47 49 51 53 56 59 62 67 72 76 80 84 89 92 92 93 94 96 97 98 79 68 60 52 47 52 56
39 40 41 44 46 48 50 53 55 58 61 65 70 74 79 83 88 91 92 92 92 94 94 94 74 62 52 40 34 33 34 37
40 42 44 46 49 51 52 54 56 60 64 69 74 78 83 86 89 91 90 90 93 92 91 70 55 41 34 34 35 36 38 40
44 46 47 49 51 52 53 55 59 62 68 73 77 82 85 87 90 89 89 92 91 88 71 52 41 36 35 37 39 40 41 44
47 48 49 52 52 53 54 57 61 67 71 76 80 82 85 88 88 87 90 89 85 71 54 41 37 36 37 41 42 41 43 45
50 51 52 52 53 54 57 60 66 71 75 78 81 83 86 87 85 89 89 84 70 55 42 36 35 36 38 41 43 43 45 47

GFSFLT1_500_spd_039.txt.gz
Wind_Speed
14 14 15 19 19 20 19 23 28 30 36 35 45 35 32 39 42 47 48 49 47 44 40 37 37 41 44 47 50 54 57 60
15 16 17 19 19 20 18 25 32 32 42 46 47 47 49 50 51 53 49 46 43 39 38 41 46 50 53 57 59 61 65 67
15 16 17 20 24 24 25 30 34 38 45 50 51 52 51 51 52 49 46 42 42 46 48 52 56 58 61 63 65 68 69 72
20 21 22 26 29 32 35 36 37 42 47 48 51 53 56 56 52 52 49 48 49 52 54 56 58 61 63 67 70 73 77 80
22 22 25 28 30 33 33 35 38 43 48 47 46 55 54 53 50 49 48 51 53 55 57 60 62 66 72 76 79 82 86 89
22 24 27 26 26 31 35 36 41 48 44 42 52 51 47 48 51 51 53 55 57 59 62 65 69 75 79 83 86 90 93 94
22 25 27 28 27 34 32 43 35 40 51 51 50 49 48 49 50 53 56 57 61 64 67 72 77 82 86 88 91 94 94 95
22 24 25 26 33 35 36 42 50 53 52 49 48 48 48 50 53 55 58 61 63 67 72 78 82 86 89 92 93 96 97 98
19 22 25 28 32 36 39 42 45 46 48 50 50 49 52 54 56 59 61 63 68 72 77 82 86 90 93 94 95 99 102 104
18 21 23 26 30 33 37 41 43 44 48 49 52 53 54 57 58 60 63 68 72 76 83 86 91 94 95 97 99 101 102 94
20 23 26 29 32 36 39 42 45 47 49 51 52 55 57 59 61 64 69 74 78 84 89 92 96 96 96 98 101 97 86 72
23 26 28 30 33 37 39 41 44 47 51 53 55 57 59 61 64 69 75 79 84 89 92 94 94 94 97 99 92 76 62 53
28 31 33 35 39 41 43 45 47 50 53 56 57 58 60 64 68 74 79 84 89 91 92 93 93 96 97 85 68 53 43 41
34 38 40 42 43 45 46 47 49 52 54 57 58 59 63 67 73 78 83 87 89 90 91 92 94 93 80 63 48 43 40 42
37 40 43 45 47 48 49 49 50 54 57 58 59 63 67 72 76 81 85 87 88 89 91 93 91 76 60 46 41 39 40 42
40 43 46 48 49 50 51 52 54 56 58 59 63 66 71 75 80 84 84 87 88 90 93 90 74 60 47 39 38 38 41 45
45 47 48 49 50 52 53 55 56 57 59 62 66 70 75 79 82 83 85 87 89 91 88 75 61 49 39 37 37 39 42 46
48 50 51 51 52 53 55 56 57 59 61 64 69 74 78 79 81 84 86 88 90 86 74 63 51 41 35 36 37 39 42 47
50 52 52 53 53 55 56 58 59 61 64 68 72 76 78 80 84 85 87 89 84 74 63 53 43 34 34 35 36 39 43 46

GFSFLT1_500_spd_042.txt.gz
Wind_Speed
15 17 18 20 18 20 23 25 25 29 28 25 35 45 43 43 39 39 40 42 43 41 39 37 36 37 38 42 46 48 51 53
14 17 19 18 19 21 23 25 29 34 35 36 40 44 46 47 48 49 50 49 46 41 38 38 41 43 47 50 52 55 56 59
14 15 15 17 20 24 27 30 33 36 38 40 42 45 50 50 48 53 54 52 49 48 49 49 51 52 53 54 56 59 63 68
17 18 19 20 23 28 30 32 34 36 36 40 45 49 52 51 54 54 52 51 51 53 54 55 55 56 57 59 62 66 69 74
19 19 19 22 25 28 30 30 32 35 37 43 48 48 50 57 57 52 50 49 51 54 56 58 59 61 63 66 70 74 79 83
18 18 20 25 28 29 32 34 34 36 41 45 47 53 52 50 51 53 53 53 55 57 60 62 64 65 69 73 77 82 86 89
17 20 23 22 22 22 22 27 31 35 39 43 46 49 51 52 53 53 55 57 59 62 63 64 66 69 74 79 84 89 92 94
15 15 14 16 19 22 25 28 31 34 38 42 46 49 52 54 54 57 58 60 62 63 64 66 70 75 79 85 90 93 95 96
11 14 17 20 23 26 30 32 34 37 40 43 46 49 52 54 55 57 59 60 63 65 67 71 76 81 85 91 94 96 97 97
14 17 20 23 26 30 33 36 39 41 44 45 47 49 52 55 57 60 61 63 65 68 71 76 81 86 91 93 94 95 96 98
18 21 24 27 30 34 36 38 41 43 46 47 49 51 53 57 60 61 62 65 68 71 76 81 86 91 92 92 92 95 97 88
23 25 28 30 33 36 39 41 43 46 48 50 52 55 57 60 61 62 63 67 71 75 81 86 89 91 90 91 94 95 84 69
29 31 33 35 37 39 42 44 47 49 51 53 55 57 58 60 61 63 66 70 75 81 85 87 88 88 90 93 93 78 64 51
34 37 39 41 43 45 46 48 49 50 53 55 56 58 60 61 62 66 70 75 80 84 85 86 87 89 92 88 74 62 50 42
39 41 43 46 47 49 50 51 52 53 55 56 58 60 62 62 65 69 74 78 81 83 85 86 88 90 84 74 62 50 41 40
44 44 47 49 50 52 53 53 54 55 57 58 60 62 63 64 69 73 78 80 82 86 86 88 89 83 73 64 52 42 37 39
46 48 50 52 53 53 53 55 56 58 59 60 63 62 64 68 72 77 79 82 85 88 88 88 84 73 66 54 44 37 36 38
49 51 52 54 54 53 55 57 58 60 61 62 61 66 68 72 74 77 80 84 86 89 87 86 75 69 57 46 38 34 36 37
51 53 54 54 53 54 56 57 59 61 61 62 64 70 74 75 77 80 83 86 88 89 85 75 68 61 47 38 33 33 34 36

GFSFLT1_500_spd_045.txt.gz
Wind_Speed
11 12 13 15 17 18 22 24 25 25 29 33 34 37 39 36 39 43 42 39 43 48 49 47 42 41 39 39 42 45 48 50
13 13 15 17 18 20 23 26 28 30 32 35 37 38 37 39 43 45 43 48 53 51 48 45 43 43 44 47 51 53 52 52
14 14 15 16 19 23 26 28 31 33 34 36 38 40 42 45 47 48 53 52 49 49 50 49 48 48 50 52 54 55 55 58
16 18 19 21 22 24 26 28 30 30 32 35 37 38 40 44 48 53 52 52 52 52 51 50 52 54 56 58 59 61 62 65
22 22 22 23 24 26 27 27 26 26 28 30 32 35 39 41 44 47 50 52 54 54 55 57 59 60 62 63 65 67 69 72
25 24 22 23 23 20 20 20 21 24 28 30 32 36 39 42 45 49 51 55 56 56 57 59 61 62 64 65 68 71 74 79
23 22 22 19 15 16 19 21 24 27 30 33 36 40 44 46 49 52 54 56 58 60 61 62 62 64 66 69 73 77 82 87
19 16 14 14 16 19 22 25 28 30 33 36 40 43 47 49 52 55 57 58 59 62 64 64 65 67 71 74 78 83 89 93
11 12 14 17 20 23 26 29 32 34 37 40 43 46 49 51 53 55 57 58 60 63 64 65 67 70 74 79 84 88 91 92
15 17 20 22 25 28 31 34 35 38 41 44 46 49 51 53 55 56 58 60 62 65 66 67 70 74 79 84 88 90 91 94
22 24 27 29 32 34 37 40 41 43 46 48 49 51 54 56 57 58 60 62 64 67 67 70 74 78 83 86 88 92 94 91
27 30 32 36 39 41 43 45 46 48 50 52 53 55 57 58 59 61 62 64 66 67 70 74 78 82 85 88 89 91 91 89
31 34 36 39 42 45 46 47 50 53 55 56 58 58 59 60 61 61 64 65 67 70 73 77 80 83 86 87 88 91 88 77
35 39 41 44 46 47 48 50 53 54 55 55 58 60 60 61 62 63 65 66 69 73 77 78 80 84 87 89 92 90 77 70
41 44 46 47 49 50 51 53 54 54 56 57 58 59 61 61 63 64 66 70 74 78 78 80 84 85 87 92 92 81 71 62
47 49 50 50 52 53 54 54 55 54 55 56 58 60 62 62 63 65 69 75 79 79 80 83 86 87 89 93 86 72 65 52
50 51 52 53 53 54 55 54 54 54 56 58 60 61 62 60 64 66 72 77 81 86 84 85 86 90 93 88 75 67 53 42
52 52 52 52 54 55 54 53 54 55 58 58 60 60 61 66 67 69 72 77 84 85 86 88 89 93 89 75 67 56 43 36
51 51 51 53 54 54 53 53 54 56 58 60 58 61 66 72 72 72 75 80 82 83 85 89 93 93 76 66 57 44 36 33

GFSFLT1_500_spd_048.txt.gz
Wind_Speed
4 5 6 6 10 14 16 17 21 22 25 27 31 32 33 33 33 37 36 36 38 40 41 41 42 44 43 41 40 42 44 46
7 9 12 12 14 16 19 21 23 25 28 28 29 29 30 32 33 33 34 36 38 40 43 45 45 47 48 47 48 49 49 51
10 12 15 17 15 16 20 23 26 26 27 25 25 25 27 30 33 36 39 42 43 45 47 49 50 50 52 53 53 53 54 54
14 16 18 20 22 21 23 24 24 23 21 21 24 27 30 32 35 39 42 45 46 47 48 49 51 53 54 55 55 55 54 56
19 23 21 24 25 25 25 22 21 20 21 24 28 31 34 37 39 40 43 46 48 50 52 53 54 56 57 58 57 57 60 62
25 28 25 26 24 23 18 18 19 22 25 28 33 35 38 41 45 47 50 51 51 52 52 53 55 57 58 59 59 60 64 68
30 29 22 19 19 16 17 19 20 24 28 32 35 38 41 44 46 49 51 53 56 58 60 60 61 62 63 63 64 67 70 74
21 18 15 12 14 17 21 24 26 29 33 37 39 42 45 48 50 52 54 56 58 60 61 62 63 64 65 65 67 72 77 82
11 11 12 16 19 23 26 30 33 34 39 41 44 47 50 52 53 54 55 57 59 61 61 62 64 65 65 68 72 78 83 86
15 18 21 23 26 29 33 38 39 41 44 47 49 52 54 57 59 59 58 60 61 62 63 64 66 66 69 73 78 83 85 86
22 24 26 29 30 34 36 42 45 44 46 49 52 54 56 57 60 58 60 62 62 62 63 64 65 68 72 77 82 82 85 87
26 29 30 32 36 39 39 44 48 50 50 51 54 56 56 56 56 56 61 62 62 63 63 64 67 71 76 81 83 87 85 86
29 33 36 37 39 45 47 48 51 53 53 53 56 57 57 57 52 62 64 62 63 63 64 67 70 75 78 81 87 85 86 89
35 37 41 44 47 48 51 50 51 52 52 54 56 57 56 55 56 59 62 63 64 64 68 71 74 76 79 84 82 82 88 89
41 45 47 49 51 51 52 53 51 52 53 55 57 55 57 58 59 62 63 64 66 69 74 78 80 80 81 82 83 86 88 83
45 49 50 52 52 52 52 53 53 54 54 56 55 57 57 56 63 63 62 65 71 76 81 83 83 82 81 82 84 87 83 71
49 50 51 53 54 54 53 54 55 56 55 55 56 59 59 62 62 60 64 70 77 84 86 86 81 80 80 82 83 80 71 62
51 52 54 56 57 58 56 56 56 55 54 56 58 58 61 61 63 66 70 68 75 82 87 82 79 81 80 76 79 71 60 56
52 55 56 57 57 57 56 54 55 55 56 57 58 59 60 63 73 79 78 82 84 83 81 80 82 85 75 68 69 64 58 51

GFSFLT1_500_spd_051.txt.gz
Wind_Speed
2 3 5 2 4 6 10 13 15 17 18 19 20 22 22 21 22 22 24 25 26 29 32 34 36 38 41 42 45 47 47 47
3 5 2 4 9 11 12 16 17 20 18 18 20 19 19 21 25 26 29 31 33 36 38 39 40 42 45 48 48 49 50 49
10 12 10 8 9 16 16 20 22 18 17 14 15 17 21 24 27 29 33 36 38 41 43 44 45 48 50 51 51 51 53 53
14 16 19 17 17 19 18 20 19 14 14 15 19 21 24 27 30 32 36 39 42 45 47 47 49 50 52 53 53 54 55 55
14 18 23 23 23 19 20 15 12 13 16 19 23 25 28 31 35 37 41 44 46 48 49 49 50 52 54 54 54 55 57 55
13 16 21 24 23 17 12 13 14 18 20 24 28 31 34 37 40 43 45 49 51 52 53 51 51 52 53 54 54 57 56 57
16 13 13 15 19 17 15 17 19 24 27 30 34 37 42 45 48 50 53 55 56 57 58 58 58 59 61 62 62 61 60 63
16 12 8 8 13 15 18 21 23 28 33 35 39 43 46 49 52 54 55 56 57 58 60 59 62 62 63 64 64 63 64 68
11 10 9 12 16 21 25 27 28 31 36 39 42 46 49 52 55 55 57 57 58 59 59 59 63 65 65 65 64 64 67 72
14 15 16 19 21 25 29 32 33 36 38 40 44 47 49 52 52 54 56 56 57 50 57 67 68 70 68 65 64 68 73 77
19 20 22 24 26 29 33 36 39 42 43 43 47 49 51 52 53 55 56 58 57 54 57 64 67 69 68 66 70 75 80 83
24 26 27 28 30 31 35 40 44 47 48 47 49 49 50 53 56 58 60 54 60 58 59 64 67 67 68 71 76 80 86 89
27 30 33 34 36 39 40 41 44 44 45 45 47 48 51 56 59 60 60 61 62 59 61 70 67 68 73 77 82 85 89 90
30 34 37 40 43 43 42 46 49 46 46 52 56 55 57 58 59 59 59 62 63 64 67 67 67 71 74 76 82 88 84 78
37 39 41 44 36 36 41 44 45 51 53 56 55 55 55 55 57 58 60 61 59 71 68 72 80 86 83 82 83 84 81 87
43 44 43 31 36 39 44 49 53 54 56 55 53 54 55 56 58 60 61 60 62 66 67 74 83 84 82 85 83 82 88 81
46 48 42 38 33 53 51 54 55 55 55 54 55 56 57 59 60 61 61 62 64 67 75 82 85 87 88 83 84 85 78 69
46 47 48 50 51 53 54 54 53 53 53 54 55 56 57 59 59 61 66 70 72 72 79 83 84 84 79 85 84 77 71 61
44 46 49 51 52 54 53 53 54 55 56 57 57 57 57 58 59 62 69 75 79 83 86 85 81 83 82 75 71 65 60 55

GFSFLT1_500_spd_054.txt.gz
Wind_Speed
5 4 1 3 3 2 3 5 6 7 10 14 16 16 18 17 14 16 18 20 23 26 29 31 34 36 37 38 40 42 44 47
6 5 2 4 4 4 7 9 10 13 14 13 14 15 12 15 17 19 23 26 28 31 34 37 40 42 43 44 45 48 50 50
5 6 4 4 8 10 11 14 14 14 14 12 12 12 16 19 22 25 28 31 34 36 39 42 43 46 48 50 51 52 53 53
3 3 2 3 7 11 14 14 14 13 11 12 15 16 20 24 27 30 33 37 40 43 45 47 49 51 53 54 54 54 55 55
6 6 8 8 8 11 12 11 11 12 14 16 19 22 25 29 32 35 38 42 45 46 48 50 51 51 53 55 55 55 56 57
7 8 8 10 10 9 8 9 11 12 17 21 24 27 30 34 37 40 44 46 48 48 49 51 53 55 55 54 53 56 61 64
6 4 6 8 9 8 8 10 14 19 22 26 29 32 36 39 41 44 46 48 50 52 53 54 55 56 58 56 57 65 67 70
4 4 5 5 7 10 13 16 20 24 27 29 31 36 40 43 45 48 49 52 54 55 57 58 59 62 61 59 63 67 69 70
5 5 8 10 12 16 18 20 24 27 30 33 36 41 46 49 50 51 53 55 56 59 61 59 64 63 64 64 66 67 70 71
8 9 12 13 18 22 24 26 29 32 35 38 41 44 48 50 53 52 56 51 43 63 59 65 65 63 66 67 66 70 73 69
12 14 17 20 23 26 30 33 36 38 40 41 42 44 47 49 47 46 50 50 54 65 63 63 61 64 68 65 69 73 71 75
16 18 19 21 25 29 34 38 42 44 44 44 48 43 46 45 49 47 54 47 60 61 63 66 64 67 67 65 73 78 75 77
22 23 24 26 29 34 38 42 42 38 37 43 46 45 51 53 51 52 58 55 63 55 67 66 68 68 69 72 74 76 79 83
27 28 31 32 34 36 38 34 34 37 39 41 49 52 55 52 53 55 55 56 61 63 64 66 68 70 71 75 79 85 87 87
28 31 33 34 35 34 37 36 39 40 45 47 51 54 49 54 55 56 59 61 62 62 64 66 70 73 78 83 87 86 79 78
32 33 34 34 36 36 36 40 43 45 47 54 51 57 56 56 57 60 61 61 62 65 67 69 73 77 80 84 82 79 81 82
37 38 37 33 39 40 37 39 43 45 55 55 55 54 56 56 58 60 61 62 65 67 70 73 76 79 80 80 81 82 75 70
40 42 44 45 45 36 36 41 51 51 52 53 54 56 57 58 58 58 59 67 70 71 75 78 80 79 79 80 75 71 70 69
39 40 42 45 47 49 50 50 50 50 52 54 56 58 59 58 60 62 64 66 72 75 78 78 77 80 79 75 72 69 67 67

GFSFLT1_500_spd_057.txt.gz
Wind_Speed
12 11 12 13 11 8 8 3 2 1 4 7 10 13 14 14 11 13 17 18 20 23 26 29 33 36 39 42 44 45 46 47
6 5 5 5 5 5 2 1 4 6 8 10 12 12 11 11 14 18 20 23 26 29 32 35 38 40 43 45 47 48 48 49
8 6 4 3 3 3 3 5 6 9 8 10 10 10 11 15 17 21 25 28 32 34 37 40 42 44 47 49 50 51 52 55
4 5 4 4 5 6 6 7 9 9 8 8 9 12 15 19 22 27 30 34 37 39 42 44 46 48 50 52 54 54 54 55
5 5 7 7 7 11 12 11 9 8 8 11 14 17 20 25 28 32 35 38 41 44 47 48 50 50 49 51 54 56 59 58
7 8 10 8 8 11 10 10 9 10 13 15 17 23 26 30 33 36 38 43 45 47 48 49 51 49 46 53 54 58 63 61
9 8 11 12 10 9 8 9 10 13 16 19 23 27 31 35 38 40 44 46 48 48 45 47 51 47 50 57 62 64 65 63
7 7 8 8 8 9 10 11 15 17 20 24 27 31 36 40 42 45 47 46 48 45 45 51 46 55 60 66 70 65 67 68
6 6 6 7 10 12 14 16 18 21 24 28 31 36 41 44 45 47 48 48 47 50 44 56 59 60 65 69 75 69 76 76
8 8 9 11 13 15 18 21 23 26 30 34 38 42 45 46 47 49 47 53 55 51 49 64 56 65 68 70 70 76 79 76
10 10 12 14 16 19 22 25 29 32 37 41 44 47 45 45 50 48 47 46 51 53 62 58 59 71 66 76 74 75 76 77
12 13 16 18 19 23 27 31 35 39 43 44 39 40 46 49 53 47 51 54 49 63 59 59 62 66 71 74 74 75 78 81
19 20 22 23 24 28 32 36 40 43 39 39 40 45 46 47 46 51 61 56 60 59 61 62 64 68 70 73 75 78 82 84
25 27 26 26 31 34 34 37 37 38 40 40 38 42 47 51 55 56 56 59 60 62 62 65 66 68 71 74 79 81 84 88
25 26 29 32 32 33 34 36 37 38 38 36 42 44 48 52 57 60 60 60 61 63 65 66 69 71 76 81 83 86 87 84
27 29 31 32 32 33 32 36 36 36 37 41 42 51 56 58 57 58 60 61 63 64 66 69 73 76 78 80 83 88 88 86
30 33 33 33 32 33 36 36 38 35 37 45 54 53 52 57 56 59 63 64 64 64 70 71 76 81 82 84 87 91 83 79
32 34 36 35 36 39 42 43 44 42 44 50 50 52 54 56 59 61 62 63 66 64 73 77 78 79 82 86 89 81 76 70
34 36 36 37 40 43 44 46 48 48 47 48 51 53 56 58 59 61 63 65 68 71 74 75 76 79 82 82 79 74 69 64

GFSFLT1_500_spd_060.txt.gz
Wind_Speed
12 12 13 12 12 11 12 11 11 11 10 9 8 10 10 11 11 9 11 14 17 19 21 26 30 34 38 41 43 45 45 46
10 11 11 12 10 10 10 9 10 11 10 9 9 10 10 9 10 14 15 17 21 24 26 31 35 39 43 45 46 47 48 48
9 11 12 11 11 10 9 8 8 9 9 10 9 9 9 11 14 18 18 22 26 29 32 35 39 44 46 46 48 51 51 48
10 10 10 10 10 10 10 10 11 11 10 11 9 8 11 15 18 21 24 27 30 34 36 39 43 46 48 48 49 54 52 50
8 10 11 11 11 12 13 13 14 13 12 12 11 13 15 17 22 25 29 31 35 38 40 42 44 46 49 49 52 48 49 55
13 11 11 12 12 14 15 14 14 13 13 14 14 17 19 22 26 30 33 36 40 42 43 45 46 48 46 48 52 50 59 63
18 15 16 18 16 16 16 13 13 12 12 14 19 20 22 26 31 35 38 42 45 45 48 48 46 49 43 40 55 65 61 62
22 20 20 19 16 16 15 13 15 14 15 18 20 24 26 31 37 41 43 45 44 48 47 52 49 50 49 53 64 64 62 66
20 18 16 16 15 13 14 17 21 15 16 21 24 29 32 38 42 46 45 44 46 51 49 51 50 54 56 60 67 64 69 72
15 13 14 15 15 15 17 19 20 17 21 26 29 33 37 42 44 42 44 48 51 56 53 52 58 53 61 69 67 67 69 71
15 13 13 15 16 16 19 21 21 23 27 32 35 39 42 40 37 41 46 52 56 56 58 58 62 61 66 66 67 68 72 73
17 16 18 17 17 20 24 26 26 29 33 37 39 40 39 43 41 43 51 47 56 59 47 61 70 70 67 68 67 68 72 74
22 22 22 22 24 27 30 32 31 35 38 40 38 40 41 44 50 49 46 53 54 47 67 69 67 69 69 68 69 72 76 78
25 26 26 28 31 32 32 34 37 37 39 41 42 40 42 48 47 51 52 56 62 66 66 67 67 68 68 70 72 77 78 85
25 27 28 30 32 34 35 34 37 38 40 40 42 44 49 42 47 53 61 63 63 65 64 68 68 68 70 73 74 75 83 85
23 26 28 30 31 33 34 35 35 36 37 40 40 41 39 42 53 61 56 64 63 64 66 66 68 72 73 75 78 80 80 81
26 27 29 29 30 33 35 34 35 36 39 40 44 44 41 48 56 55 57 61 63 63 64 65 72 73 74 75 77 79 81 81
30 29 30 33 34 34 33 35 38 40 42 45 46 46 48 51 53 56 59 59 63 63 66 69 71 72 74 76 78 79 80 80
29 31 32 33 33 34 37 40 42 44 46 47 48 48 50 53 55 56 58 60 62 63 69 70 72 74 76 78 80 81 80 76

GFSFLT1_500_spd_063.txt.gz
Wind_Speed
12 13 13 12 11 9 8 11 12 13 13 12 11 12 12 13 13 14 13 12 15 15 18 21 24 28 32 33 36 39 41 43
12 13 14 15 13 13 14 13 14 15 15 14 14 14 12 12 14 13 13 14 15 19 22 26 28 32 35 37 39 41 46 48
11 12 13 14 15 15 15 15 15 13 14 15 15 13 13 13 14 13 14 16 19 23 27 29 31 36 39 40 42 44 48 48
12 13 13 14 15 15 14 13 13 14 15 15 16 16 14 15 15 15 17 20 23 27 30 32 36 38 41 41 46 47 48 48
9 11 13 13 13 14 15 16 16 15 17 17 17 17 15 16 18 19 22 23 26 30 34 37 40 41 44 43 46 47 50 46
14 14 16 15 16 16 17 17 16 17 16 19 18 16 18 21 23 24 26 28 32 35 40 43 43 42 43 47 46 50 52 51
19 19 18 16 18 17 18 16 14 16 16 17 19 20 22 25 23 25 29 33 37 41 42 42 42 45 48 50 53 53 57 54
23 23 23 22 20 19 20 17 16 18 21 22 24 25 26 22 25 28 32 33 41 40 41 43 45 50 54 56 57 58 59 62
22 25 26 24 23 21 18 18 17 20 26 27 23 22 21 27 29 34 33 41 40 42 44 46 51 52 56 59 56 57 70 67
23 24 23 22 19 17 16 18 18 22 27 27 23 26 29 32 33 33 38 38 42 46 47 51 45 55 65 63 58 69 69 69
17 19 20 20 20 20 19 20 21 23 27 28 29 30 32 34 34 32 36 41 44 46 50 44 49 52 62 62 68 71 72 72
20 21 22 21 21 21 21 24 26 28 31 32 33 36 37 37 33 32 37 44 49 50 49 52 58 64 68 68 71 70 71 72
22 24 24 24 24 25 28 28 31 32 34 35 37 38 37 35 36 42 45 49 56 47 48 47 63 63 61 69 71 71 72 75
22 24 28 30 30 31 32 34 34 34 36 38 36 35 34 38 40 40 45 51 49 55 59 62 61 64 75 73 71 71 73 77
28 27 31 33 36 38 36 36 35 36 36 36 35 36 37 39 39 46 47 52 57 65 65 53 66 74 74 72 71 73 78 80
24 25 30 31 31 32 34 34 33 34 35 35 35 36 40 41 44 45 45 45 56 66 69 66 67 68 70 73 73 75 79 79
28 27 26 29 29 29 30 32 33 34 33 34 37 39 41 44 46 48 48 49 54 58 63 65 64 68 71 73 75 76 78 79
30 31 31 31 30 31 32 34 34 33 35 37 39 42 45 47 50 51 53 55 58 58 61 64 67 71 73 75 75 78 79 80
30 29 30 31 31 32 33 33 33 35 38 40 42 46 49 51 52 55 55 57 58 60 63 66 69 73 74 75 78 80 82 83

GFSFLT1_500_spd_066.txt.gz
Wind_Speed
7 9 16 16 12 15 14 13 12 11 11 11 11 10 11 13 15 16 16 14 14 11 13 15 18 22 24 28 31 34 37 39
10 10 10 10 7 6 8 11 9 10 11 13 15 15 17 17 18 18 17 14 13 13 16 18 22 25 29 32 34 37 39 38
9 10 12 12 10 10 11 12 13 14 15 15 15 17 19 19 19 18 15 15 15 16 19 22 26 29 33 35 37 38 40 41
9 11 13 13 14 14 14 15 15 15 15 18 19 20 19 19 18 17 17 18 19 20 23 27 29 33 36 39 38 39 41 43
7 8 10 12 13 14 16 17 17 18 18 19 21 21 22 22 20 19 21 22 22 24 28 29 32 37 39 38 36 40 43 44
11 11 13 14 15 16 17 18 19 20 21 20 22 21 22 22 23 22 24 29 28 28 31 33 36 38 38 39 40 41 46 50
16 18 19 18 20 20 20 20 19 18 20 22 26 26 25 26 26 27 30 29 25 32 38 35 41 38 42 43 42 45 46 54
25 23 20 20 21 20 18 19 20 19 18 19 24 28 26 27 26 30 27 27 32 36 33 42 42 42 46 48 48 49 50 56
15 18 21 22 23 22 21 21 21 18 19 20 23 27 33 33 25 24 27 30 34 33 38 40 43 46 51 52 52 51 55 57
16 21 25 24 24 24 24 22 20 21 23 25 25 29 32 30 29 28 32 35 35 35 38 40 46 49 49 50 52 54 53 67
16 16 19 22 22 21 20 22 23 24 24 27 29 32 36 34 34 37 36 36 33 34 40 44 47 51 51 54 57 61 70 64
20 21 17 18 20 21 22 23 25 26 27 30 33 36 38 38 40 41 35 30 33 41 44 49 47 47 48 53 58 66 70 71
23 24 26 26 27 26 26 28 30 32 34 36 37 39 40 43 38 33 32 35 39 40 47 45 43 60 57 54 53 64 67 77
21 23 26 29 32 33 34 35 37 37 37 39 40 40 43 43 39 36 36 38 41 53 35 48 57 63 62 65 78 73 75 80
25 24 25 31 34 38 41 41 40 40 41 40 41 41 42 41 38 37 39 39 41 45 58 59 57 64 72 76 78 78 78 76
27 28 27 26 33 38 40 38 36 38 39 40 40 39 40 40 40 42 44 44 48 51 53 55 56 61 64 69 72 73 74 76
29 30 31 30 30 33 34 33 33 34 36 38 39 38 39 40 41 43 45 48 50 51 54 58 62 63 65 67 69 72 75 77
28 29 30 32 32 33 36 36 37 36 36 37 36 38 39 41 43 46 48 50 54 56 59 61 63 63 65 69 72 73 76 78
28 29 30 31 32 33 33 34 36 37 37 37 38 39 41 44 46 50 53 55 58 59 60 62 63 65 67 70 73 75 77 79

GFSFLT1_500_spd_069.txt.gz
Wind_Speed
16 12 10 18 17 12 9 13 14 13 14 14 12 8 6 5 10 14 15 15 16 16 14 14 14 16 18 21 24 26 29 33
7 10 13 12 11 11 11 13 12 9 6 5 4 6 9 11 14 16 16 17 18 16 15 16 18 20 22 25 27 30 34 36
4 6 5 6 5 3 2 2 1 1 3 4 6 8 11 15 17 19 20 20 20 18 20 20 22 24 25 28 31 35 38 37
1 1 1 1 2 3 3 5 6 7 9 11 13 14 17 18 19 21 21 20 20 22 24 24 26 28 27 31 36 38 37 36
4 3 4 4 6 7 9 10 11 11 13 15 17 20 21 22 22 22 21 21 23 26 28 29 31 32 31 36 38 36 38 41
6 8 9 9 9 10 11 13 14 16 18 19 21 23 24 25 24 25 23 24 26 28 35 40 34 35 37 41 40 40 43 48
15 16 15 15 15 15 16 17 17 18 19 20 22 24 26 27 27 28 26 29 31 33 38 32 31 36 37 39 42 43 48 52
16 19 17 16 14 16 17 18 16 18 20 20 19 21 20 22 27 30 32 34 35 37 33 36 35 38 37 40 42 46 51 52
15 16 16 15 16 17 17 18 20 20 18 18 18 20 21 25 23 27 32 33 32 31 33 39 41 39 38 42 49 48 50 54
19 17 16 17 19 18 19 19 19 19 20 21 21 24 24 26 29 31 34 36 37 39 39 41 43 35 42 45 51 44 50 53
21 18 17 15 16 18 19 20 21 22 24 25 26 26 28 31 33 36 37 37 42 44 42 39 33 43 49 48 50 47 53 61
22 21 20 21 20 21 21 23 25 27 27 27 29 31 32 36 38 40 40 42 41 40 32 35 45 42 50 51 43 48 62 67
25 24 24 24 26 27 28 28 29 30 31 32 31 35 39 41 44 44 44 45 44 41 40 39 47 40 53 51 55 60 74 70
23 24 25 27 30 32 34 34 35 35 36 36 39 41 42 44 45 46 47 47 46 42 41 43 43 47 53 57 63 72 72 71
22 22 24 26 29 33 37 39 40 41 42 44 45 45 44 45 46 46 47 47 45 45 47 48 49 52 55 57 61 64 66 67
24 26 26 26 27 29 30 33 37 39 39 41 41 41 43 44 45 45 46 48 47 47 48 50 52 55 58 60 64 66 68 69
27 29 30 30 30 31 31 34 36 35 34 36 39 41 42 43 45 45 46 47 46 48 51 53 56 59 61 63 65 67 68 69
29 29 30 31 32 33 32 34 37 37 38 38 39 40 42 43 43 43 44 46 49 51 54 57 60 62 64 66 67 67 68 69
28 28 29 31 32 33 34 35 37 39 39 40 41 42 42 41 42 44 47 49 52 55 59 61 64 65 66 67 67 68 70 71

GFSFLT1_500_spd_072.txt.gz
Wind_Speed
3 3 1 10 19 4 9 3 8 7 5 10 13 16 15 13 11 10 9 6 7 9 14 15 14 17 18 18 19 20 22 24
15 16 16 17 18 15 13 13 13 11 14 11 11 8 5 3 3 3 6 9 12 14 14 16 20 20 20 22 21 23 25 28
10 10 9 10 10 9 10 7 8 7 5 3 3 2 2 3 5 7 10 13 17 19 19 20 22 23 24 24 25 27 29 31
7 5 5 6 6 5 4 4 5 5 5 6 7 7 8 10 11 13 15 16 18 21 22 23 26 27 29 30 31 33 34 34
5 5 7 8 7 6 5 6 6 7 9 10 12 13 14 15 16 17 19 20 20 22 24 25 27 33 37 35 36 39 39 39
7 9 10 11 10 9 9 8 8 9 11 12 14 14 16 17 18 20 21 22 23 25 27 29 30 33 37 40 42 40 41 40
13 14 11 11 9 9 10 12 12 11 12 14 16 17 17 17 17 20 22 21 24 29 30 31 37 40 40 43 37 43 40 42
10 11 10 11 9 8 9 10 11 12 11 15 14 14 17 17 17 19 20 19 24 28 28 33 39 42 38 41 43 49 38 43
19 18 16 13 9 8 10 11 12 12 15 15 14 16 17 19 22 23 22 21 27 30 32 32 37 40 44 46 47 41 39 51
24 24 23 21 17 13 11 13 13 14 15 17 17 18 20 23 24 25 26 26 29 31 33 37 39 42 42 41 35 38 45 53
21 22 22 21 19 17 16 16 17 18 20 20 23 25 25 27 26 30 30 34 37 36 37 39 40 42 43 35 38 48 43 52
19 21 21 23 22 23 19 20 23 26 27 27 27 31 32 31 30 34 35 38 40 42 43 43 42 42 43 42 43 41 48 46
20 22 24 25 24 25 24 27 25 29 34 35 32 32 34 38 37 39 40 42 44 45 46 46 45 44 42 43 47 49 52 57
23 21 25 26 26 27 30 31 31 33 38 37 36 38 37 38 43 46 47 45 45 46 46 48 46 44 45 47 48 51 54 57
25 21 20 25 25 28 30 31 33 35 39 38 38 36 38 43 43 43 45 45 45 46 48 48 47 47 48 50 52 55 58 61
23 23 25 21 25 25 27 29 31 32 34 36 36 35 38 38 39 43 44 44 45 47 48 48 48 48 50 52 56 59 61 63
23 25 32 26 24 28 29 30 32 33 33 35 36 36 37 41 43 47 43 44 46 47 47 47 48 50 53 56 59 62 64 66
27 30 32 33 29 30 32 33 34 36 37 37 38 40 41 43 44 45 45 46 46 46 47 49 51 53 57 61 63 64 66 67
29 31 32 34 34 34 34 36 36 37 37 38 39 41 42 43 44 45 46 46 46 47 50 52 55 57 60 62 64 66 66 66

GFSFLT1_500_spd_075.txt.gz
Wind_Speed
6 9 8 12 12 13 8 13 12 9 8 4 4 8 8 9 12 17 17 13 13 8 8 10 12 13 16 19 18 19 21 22
18 18 16 10 6 9 11 8 11 12 16 17 18 18 14 13 13 14 13 5 2 5 10 14 13 18 19 19 20 22 24 27
10 12 15 17 18 18 17 18 15 14 15 13 14 12 10 10 8 4 2 4 7 10 13 17 16 17 20 22 24 25 29 30
11 12 12 12 11 12 11 11 9 7 9 8 8 8 6 6 3 2 4 7 10 12 14 17 20 21 22 25 29 31 35 37
11 12 12 11 10 10 8 8 6 5 4 5 5 5 4 4 5 5 6 8 11 13 15 17 21 23 24 26 28 31 33 38
5 8 9 7 6 5 5 4 3 2 3 3 5 5 5 5 7 9 8 11 13 15 16 20 21 27 27 30 31 38 43 43
5 6 6 6 5 4 2 1 4 6 4 4 5 5 7 6 6 9 10 11 11 9 16 18 19 21 23 33 36 38 42 45
8 10 10 10 9 9 8 9 8 7 9 7 7 7 11 9 8 9 15 15 15 17 19 21 20 22 25 29 33 38 37 39
8 9 10 13 13 11 13 14 13 8 9 12 10 11 14 15 16 16 19 20 19 21 22 25 28 28 31 34 35 38 39 39
18 14 13 11 13 14 14 14 15 13 11 11 14 16 16 20 22 22 25 24 24 20 27 32 34 33 36 38 38 38 40 38
22 18 14 13 9 13 15 16 14 13 13 14 15 19 23 23 25 28 29 26 27 28 31 36 34 39 39 40 40 41 40 39
23 26 26 19 15 13 16 20 20 16 24 19 20 24 28 31 28 28 33 30 30 31 36 37 40 41 39 39 41 41 42 44
18 18 23 24 19 20 20 20 21 15 25 25 25 32 38 37 29 34 30 31 36 41 37 36 41 41 41 42 43 43 44 44
11 14 16 21 23 20 21 19 18 22 27 26 29 27 32 36 33 35 32 40 43 37 37 41 43 43 44 44 43 44 45 47
18 14 16 18 19 20 23 24 25 26 27 29 31 32 33 35 33 37 39 39 35 40 43 44 45 46 46 46 45 47 48 50
31 28 18 15 18 21 25 27 29 31 32 32 33 33 33 34 35 38 39 39 40 43 45 43 46 46 47 46 48 50 52 55
25 25 27 12 12 18 23 27 28 30 32 34 35 35 35 36 36 38 39 43 44 45 46 46 46 47 47 49 51 52 56 60
21 27 26 24 22 23 26 29 31 32 34 34 36 37 38 38 40 41 43 45 46 46 46 46 47 48 50 52 54 57 61 63
24 28 31 32 32 31 32 32 34 34 35 38 39 39 40 40 40 41 43 45 47 46 48 49 50 52 54 56 58 61 64 66

GFSFLT1_500_spd_078.txt.gz
Wind_Speed
9 7 7 9 11 10 8 9 7 11 9 10 11 11 12 14 16 20 21 24 19 14 16 14 11 9 11 15 18 19 18 19
13 12 14 5 5 10 12 11 15 13 11 9 7 9 11 9 9 14 17 16 16 14 12 14 12 11 14 18 21 21 21 23
9 9 13 16 18 15 14 14 14 12 13 14 13 12 14 15 15 14 12 11 9 8 11 13 13 15 18 20 23 25 24 24
12 10 9 11 15 18 18 18 15 14 13 13 11 11 12 12 11 10 9 9 9 10 13 14 16 16 20 21 24 26 28 27
10 8 8 7 9 10 10 11 12 13 12 10 10 9 9 7 5 5 5 8 10 11 13 14 17 17 18 22 25 25 29 31
4 5 5 2 4 6 7 9 9 8 7 8 8 8 6 6 6 7 9 9 8 10 11 13 15 15 19 22 24 27 32 31
1 2 3 5 3 1 4 4 4 4 4 6 6 6 9 7 7 8 10 11 10 13 11 14 14 15 15 15 19 23 26 31
4 8 6 4 5 4 5 6 6 6 8 8 8 9 9 10 12 15 14 15 17 18 16 20 18 17 17 19 22 26 30 32
1 5 9 9 9 8 7 7 8 10 10 10 12 12 13 15 15 18 20 19 20 20 23 23 23 20 24 25 26 29 32 34
10 6 7 9 12 11 10 10 9 9 11 13 15 17 16 17 20 19 21 23 26 27 28 26 27 26 27 27 32 35 36 38
14 16 14 12 11 12 13 15 13 12 13 15 18 21 21 22 22 23 26 30 31 30 32 26 24 28 31 30 34 36 38 39
22 19 18 20 15 14 15 17 16 16 19 19 19 21 24 27 26 29 36 36 37 37 32 25 31 32 34 35 38 38 40 42
15 17 11 10 14 14 14 20 23 17 16 18 20 22 25 32 36 31 26 37 38 33 34 31 32 28 36 38 40 42 44 44
8 12 16 10 11 13 13 13 15 18 18 21 20 23 27 29 29 27 30 30 32 35 34 31 35 39 40 43 43 44 46 45
11 14 15 17 16 15 16 16 17 18 21 21 21 23 26 28 30 30 32 33 37 37 37 38 39 42 44 46 46 47 47 46
23 18 23 25 25 22 22 21 21 21 22 24 24 24 26 30 31 31 34 36 40 40 42 43 46 46 46 47 47 47 48 50
20 21 25 16 24 23 23 25 27 29 28 27 28 29 30 30 32 34 36 38 40 42 43 45 46 46 47 46 48 50 52 54
27 18 21 17 17 22 23 26 28 28 31 33 34 35 36 37 37 37 40 41 42 44 45 47 48 49 49 51 53 55 56 58
28 24 24 25 27 26 27 28 30 31 33 33 33 35 38 39 39 40 42 43 44 46 47 48 49 49 51 54 55 57 59 61

GFSFLT1_500_spd_081.txt.gz
Wind_Speed
4 6 11 11 7 10 12 12 14 21 18 10 17 16 21 19 18 23 30 30 28 26 26 27 19 17 15 17 16 19 22 22
9 6 4 3 1 5 9 13 14 12 19 15 17 19 23 23 21 22 25 23 23 24 27 18 15 16 14 14 18 22 23 23
9 11 10 7 6 8 10 9 11 9 13 13 17 17 14 16 17 18 18 16 17 17 14 13 16 15 17 18 20 24 24 25
9 12 13 12 13 12 14 16 15 16 16 14 12 14 13 11 13 13 11 13 12 13 14 15 17 18 20 21 23 22 23 25
4 9 8 8 8 8 9 9 10 10 12 11 11 12 14 12 14 14 13 15 15 16 15 16 17 17 20 22 24 25 27 27
2 2 5 4 4 6 8 8 9 10 11 11 10 12 12 12 11 12 14 14 16 16 15 16 16 18 21 23 24 25 29 29
6 5 2 2 2 2 1 4 6 8 7 6 7 7 9 8 8 10 13 13 14 13 15 15 20 19 20 20 18 23 24 27
8 8 5 5 2 1 3 3 3 3 2 4 6 8 9 11 12 13 13 15 16 17 18 18 20 24 27 26 24 22 24 28
8 6 7 9 9 8 8 7 5 5 6 6 7 9 11 12 13 15 15 17 20 22 22 23 26 30 32 34 29 24 28 30
11 8 7 5 7 9 12 10 9 8 10 9 10 11 12 15 18 20 21 24 26 26 29 30 30 35 37 37 32 28 28 31
15 13 16 15 13 12 10 12 12 12 12 12 12 13 15 17 19 20 25 29 35 34 36 38 39 40 30 42 28 30 28 33
17 19 18 16 19 18 15 17 18 16 17 18 17 19 21 21 21 24 25 30 40 38 36 37 52 40 37 32 31 29 35 39
20 16 9 7 11 16 18 20 23 23 25 23 14 16 19 22 26 25 28 29 24 24 31 30 30 28 32 31 37 40 40 43
14 12 10 4 7 12 15 18 21 24 24 18 19 20 23 24 26 25 29 30 26 31 34 30 32 32 33 35 36 41 45 45
15 10 14 15 13 13 16 21 24 23 21 20 21 21 22 25 25 26 26 28 30 31 32 32 36 38 40 38 44 45 44 46
26 15 14 17 22 22 21 20 23 25 25 23 22 23 26 27 30 30 30 30 32 35 36 36 39 39 41 44 45 46 48 49
26 20 19 13 19 19 18 25 27 27 27 27 28 28 29 32 33 33 34 35 37 39 40 41 42 43 46 45 48 50 49 49
35 28 23 18 21 24 21 23 25 26 28 30 32 33 34 35 35 35 36 38 40 41 42 44 45 46 47 51 52 51 51 53
32 31 30 25 24 28 27 26 28 30 32 35 36 37 39 40 40 40 41 42 44 45 47 48 47 52 52 53 52 53 55 56

GFSFLT1_500_spd_084.txt.gz
Wind_Speed
15 15 10 8 12 14 14 14 17 20 18 19 23 21 21 25 22 25 28 28 28 30 28 30 29 27 26 24 21 21 22 23
10 13 9 2 8 12 15 14 16 22 19 14 14 19 22 24 25 26 29 33 35 32 28 27 31 29 27 21 16 20 22 22
7 10 12 7 9 12 13 13 12 11 15 19 14 19 21 26 22 27 24 24 29 26 27 27 27 23 19 17 19 22 22 24
8 7 8 9 8 10 9 9 9 12 15 15 14 17 22 24 30 26 24 22 24 21 18 19 16 16 17 21 23 22 22 23
6 7 5 3 8 12 11 13 14 14 16 17 18 16 16 16 17 17 14 14 12 12 14 14 17 21 21 23 22 21 24 26
3 2 4 3 3 5 6 7 8 9 9 7 6 8 7 8 8 11 13 12 14 16 19 19 20 18 21 23 23 22 25 26
6 5 3 2 3 4 4 4 4 6 7 9 10 11 11 12 13 13 13 14 16 17 17 18 20 21 23 24 24 23 24 25
10 6 6 6 2 1 2 3 3 5 6 9 11 13 14 14 12 12 13 13 14 16 18 17 19 23 24 26 28 29 28 32
11 9 9 8 8 8 6 5 5 5 6 7 9 11 11 11 11 12 12 13 13 16 19 21 24 26 25 28 32 30 41 40
14 9 9 8 9 10 10 8 8 10 12 10 9 8 9 10 9 9 11 12 16 19 21 24 27 29 33 35 39 40 40 41
18 18 16 15 17 16 14 11 12 11 11 12 13 13 13 15 14 14 15 17 18 21 25 31 36 39 40 36 46 42 45 40
19 18 19 22 23 24 22 18 17 15 16 19 19 19 19 19 16 17 18 20 22 24 28 33 35 44 40 38 29 34 40 41
15 15 18 19 17 15 21 22 21 21 23 24 24 24 20 19 17 19 21 23 24 26 32 36 39 33 33 22 25 26 32 36
18 14 17 14 14 14 16 20 21 23 24 22 24 24 20 23 20 23 23 25 26 29 31 31 37 32 30 31 32 34 34 36
23 15 13 15 17 17 17 18 22 24 23 23 20 18 21 21 23 25 27 29 30 33 35 34 36 36 35 36 39 40 42 42
27 23 15 15 18 19 23 25 27 26 25 25 24 24 24 25 27 30 31 32 34 35 37 37 37 37 39 37 44 45 46 49
29 29 26 19 17 19 19 19 22 25 26 26 26 26 26 28 31 33 34 35 36 37 38 39 41 42 44 45 47 46 48 48
30 31 30 26 24 20 23 24 21 24 28 29 30 29 30 32 33 35 37 39 40 41 42 43 45 47 47 47 48 47 52 54
35 33 31 27 27 25 22 24 26 26 28 30 32 34 35 36 37 38 39 41 42 43 44 46 47 48 49 50 52 54 55 56

GFSFLT1_500_spd_087.txt.gz
Wind_Speed
16 18 10 8 13 14 13 12 13 13 15 25 24 26 27 36 39 39 35 21 21 24 24 25 26 27 28 29 25 27 24 22
13 17 11 4 9 12 18 16 15 15 14 17 25 15 23 28 32 31 27 22 26 26 23 24 27 28 27 30 27 23 23 21
11 14 13 3 7 12 14 17 17 18 21 14 15 17 17 22 26 25 27 28 27 28 30 30 31 26 24 28 25 22 18 18
7 10 11 7 2 4 8 11 16 16 22 20 19 14 18 19 23 22 22 28 27 28 30 30 25 22 21 20 19 18 19 20
6 7 9 5 4 4 4 4 8 14 18 17 18 17 19 23 26 28 23 27 24 22 23 19 15 13 13 18 19 20 21 24
9 4 6 6 3 4 3 4 5 8 11 11 11 10 8 7 13 20 25 21 19 16 16 13 12 15 18 18 20 23 26 28
11 5 4 4 4 3 5 5 5 5 7 8 10 9 8 8 9 11 12 13 13 14 13 12 15 16 19 21 22 22 25 27
11 7 6 4 4 1 3 4 6 7 7 7 8 8 9 8 9 10 11 11 10 11 12 14 15 17 19 21 21 24 27 28
8 9 9 7 6 7 6 5 5 7 8 9 8 10 11 12 12 12 12 12 13 14 16 15 16 18 20 23 26 29 32 35
9 8 8 8 5 6 8 8 9 10 9 11 11 11 13 13 14 14 13 15 15 15 16 17 18 21 22 27 30 32 31 35
15 14 14 14 14 14 15 15 12 12 10 11 13 15 16 15 15 15 15 16 16 16 19 19 21 22 26 29 35 43 42 45
17 19 18 20 18 20 21 20 20 16 14 14 14 16 17 17 17 17 18 18 17 18 20 23 25 28 36 43 38 42 46 32
29 22 20 17 18 16 15 19 23 21 20 19 19 18 20 24 25 26 24 23 23 21 21 23 26 28 38 38 44 33 30 26
30 28 19 15 16 15 11 13 20 23 23 22 22 21 21 23 24 22 23 23 25 25 25 26 28 29 33 41 33 33 35 34
26 24 20 16 17 18 16 15 15 19 22 24 23 23 23 21 21 23 21 23 26 28 29 29 32 35 38 40 41 41 41 42
24 25 21 21 15 18 22 22 22 23 25 24 24 24 24 24 23 24 26 27 29 32 33 35 37 39 41 43 44 46 46 47
25 25 21 22 22 19 18 21 22 23 21 21 23 25 25 25 26 26 28 30 33 35 36 39 40 42 44 46 48 50 51 52
28 26 26 21 25 27 22 19 20 23 22 22 24 26 26 27 29 31 32 34 36 38 40 41 43 44 46 47 50 51 51 52
37 31 30 31 28 31 28 23 21 21 20 21 23 26 29 30 32 34 36 37 38 40 42 44 45 47 47 47 49 51 53 54

GFSFLT1_500_spd_090.txt.gz
Wind_Speed
18 20 13 10 15 17 15 16 14 13 8 17 17 19 25 38 40 43 49 44 37 46 42 45 48 48 36 33 29 32 28 25
15 19 14 5 6 14 15 15 16 14 10 9 14 16 20 41 31 40 40 44 41 26 35 45 46 42 45 27 27 31 28 25
11 16 14 8 5 9 14 15 16 13 13 18 15 12 16 28 35 33 35 37 30 20 20 22 31 25 24 26 28 27 25 22
10 12 12 10 5 7 10 14 17 17 15 14 15 4 10 13 25 34 37 35 31 24 25 24 26 26 25 26 22 20 18 18
11 8 8 8 7 1 2 8 14 13 14 19 18 11 13 12 12 16 22 25 22 24 25 24 20 23 22 20 15 13 14 18
12 9 5 6 6 5 3 1 7 13 15 18 21 17 17 17 17 21 20 18 19 21 22 21 18 15 15 12 13 15 17 19
10 8 6 2 3 3 2 2 1 2 5 8 11 13 10 11 11 16 21 21 19 15 12 11 11 12 11 13 15 16 19 21
7 8 7 5 3 1 2 2 3 3 3 4 5 8 9 8 7 7 8 10 10 11 11 11 11 12 14 15 15 18 21 22
14 8 9 9 8 5 4 5 5 3 5 7 8 8 8 7 9 10 11 11 12 11 12 13 14 16 17 19 21 22 24 27
14 13 8 10 9 8 6 5 6 10 10 10 11 12 12 12 12 12 14 15 15 17 17 17 17 18 21 24 24 24 29 32
18 14 18 15 14 14 13 13 13 9 12 15 15 15 14 14 14 15 17 18 18 17 16 18 20 21 24 26 27 29 36 42
23 16 17 19 21 21 18 19 18 17 15 13 14 16 15 14 14 16 19 20 20 19 19 20 21 25 27 29 31 35 45 46
28 23 22 24 25 23 21 15 15 17 19 18 18 16 14 15 17 18 22 23 24 24 23 23 24 26 29 30 34 36 32 42
30 27 26 24 21 23 19 11 12 16 20 21 22 20 19 21 22 25 24 26 25 26 26 28 27 28 30 31 33 36 37 40
30 30 28 21 18 16 16 14 13 15 16 20 22 23 25 25 25 23 21 24 23 25 28 28 28 31 32 34 38 39 40 42
28 28 27 27 17 19 16 17 17 17 18 21 23 23 26 26 26 24 24 24 25 28 29 30 31 33 34 37 41 43 43 46
34 29 29 27 21 23 23 19 18 20 21 20 20 23 25 27 26 26 26 27 30 31 32 34 36 36 39 42 45 46 49 51
35 32 29 25 24 24 23 24 25 23 23 23 23 21 20 21 24 25 27 29 31 33 36 39 41 44 46 47 48 51 52 53
36 35 32 35 30 31 25 28 27 25 26 26 25 24 23 22 22 23 28 31 33 36 39 41 43 45 46 47 48 50 53 54

GFSFLT1_500_spd_093.txt.gz
Wind_Speed
18 21 22 23 17 16 17 16 16 12 18 22 12 22 22 28 43 45 42 40 35 34 39 39 46 46 44 46 45 39 36 34
15 20 20 21 16 12 13 14 14 14 13 11 9 13 23 23 33 41 47 47 43 39 41 37 41 46 44 46 50 46 34 37
15 17 17 18 16 11 11 12 14 13 13 13 8 11 15 20 35 41 38 43 45 41 38 37 41 43 43 48 36 35 32 36
13 15 14 14 13 11 12 12 13 14 13 11 16 7 12 17 22 32 37 36 33 34 33 28 25 22 21 21 24 27 27 23
12 13 11 9 11 9 9 10 11 14 15 12 13 12 5 7 14 31 36 35 36 28 27 27 19 20 22 20 20 21 15 15
11 11 10 7 8 7 5 7 8 10 13 12 14 14 13 9 10 10 13 27 31 31 26 21 15 14 13 17 14 12 12 13
10 9 9 8 6 8 6 5 6 6 4 9 11 13 15 14 13 15 14 14 15 16 17 16 13 11 11 13 13 12 11 12
12 8 11 9 7 7 6 5 5 5 4 2 1 3 7 6 8 7 9 14 14 11 9 10 9 11 11 12 13 13 12 15
13 11 11 12 9 9 10 9 7 5 5 5 4 5 6 7 7 6 7 9 12 12 12 12 12 13 14 15 15 15 17 19
14 9 11 10 6 8 11 11 10 11 10 9 8 8 8 9 9 8 8 9 10 12 12 13 13 14 17 19 20 21 22 21
18 14 11 10 6 6 11 14 16 16 14 14 13 12 11 11 10 10 11 12 12 12 14 15 17 19 20 21 21 21 23 24
19 16 15 14 12 9 11 13 17 19 20 17 13 13 13 12 13 12 12 12 13 15 16 18 19 19 19 21 22 25 27 29
22 19 18 18 20 20 18 13 13 14 14 19 17 13 13 14 15 15 15 15 15 19 19 20 21 23 25 25 26 28 31 34
25 23 21 20 19 22 21 17 13 12 8 14 20 19 17 18 19 19 19 20 22 23 24 25 26 28 29 30 30 32 34 35
27 25 23 23 24 24 25 21 15 12 11 10 15 21 22 22 23 23 22 22 24 24 25 26 28 31 31 32 35 35 37 39
29 28 28 27 25 24 26 27 23 18 15 14 14 16 20 22 23 25 26 26 26 25 25 28 29 31 33 35 37 39 42 42
33 31 30 29 26 27 27 25 25 22 18 17 18 18 20 21 24 27 28 27 27 28 29 30 32 34 36 38 39 42 45 48
35 37 35 32 29 30 32 25 23 22 25 23 21 22 23 24 24 24 25 27 29 31 33 33 35 36 38 40 43 47 50 52
38 35 37 37 35 36 34 30 29 26 26 25 25 26 26 26 28 28 27 29 30 32 33 34 35 38 40 43 45 49 52 56

GFSFLT1_500_spd_096.txt.gz
Wind_Speed
17 18 19 20 22 18 17 12 14 14 11 11 13 17 16 22 33 49 45 42 40 39 33 28 32 37 39 41 41 41 39 38
19 18 18 18 20 17 15 9 12 14 12 10 12 10 12 16 26 43 46 38 36 34 33 30 33 38 34 37 45 44 40 43
18 18 17 16 16 16 14 10 11 12 13 9 11 4 7 18 19 29 48 43 34 35 34 28 29 34 36 27 35 40 38 41
17 16 17 13 14 13 13 11 11 11 11 8 6 15 8 5 15 25 36 41 38 40 37 35 33 34 29 30 35 36 22 23
16 17 18 11 10 11 11 11 11 10 12 13 7 5 13 6 9 18 29 39 35 37 33 36 29 28 29 29 27 22 18 18
17 17 18 11 9 8 8 10 10 12 10 10 9 7 6 7 6 6 12 24 25 28 33 36 30 25 22 17 15 14 15 11
18 17 15 12 8 8 5 7 8 7 9 8 9 6 9 9 8 7 7 8 15 29 31 27 29 21 17 14 11 14 12 14
20 15 13 13 11 8 6 6 7 8 6 5 5 2 4 8 11 13 12 9 9 11 12 14 14 14 13 13 14 14 15 14
18 13 13 13 11 8 8 6 7 7 6 4 2 3 2 5 7 6 7 12 13 13 14 8 11 16 15 15 16 16 15 15
18 13 11 9 9 6 7 8 8 9 8 8 7 4 5 6 7 9 7 8 13 16 17 19 18 18 15 17 16 16 16 18
18 14 13 9 8 6 3 4 8 11 13 12 11 10 8 7 7 7 7 9 9 10 12 12 13 13 13 16 15 13 17 18
18 16 14 12 10 11 9 9 9 10 13 14 14 12 9 9 9 10 10 10 10 10 10 10 11 13 16 14 13 15 17 21
22 20 17 16 14 13 11 11 11 12 13 12 11 15 12 10 10 10 10 10 10 11 12 14 15 16 18 19 20 21 21 24
25 25 21 19 18 15 15 12 12 10 13 12 10 15 16 16 15 14 13 13 14 16 18 18 21 22 24 25 26 24 28 30
25 27 26 24 23 21 18 15 15 13 12 15 13 14 19 20 19 19 20 20 19 21 21 21 22 23 23 24 28 29 31 33
24 28 29 30 26 23 21 18 19 19 15 16 17 17 17 17 18 20 21 21 22 24 26 25 26 25 25 27 30 33 35 37
30 31 34 31 30 27 25 25 23 21 18 17 19 20 20 20 21 22 24 24 26 27 27 26 29 30 30 32 34 36 38 41
31 31 35 36 32 30 31 28 28 23 23 21 20 22 20 22 24 24 24 25 25 26 28 31 32 33 32 33 36 39 42 45
38 38 38 37 39 39 35 34 30 27 27 26 26 25 23 23 24 25 25 27 30 30 32 33 34 35 34 35 38 42 46 49

GFSFLT1_500_spd_102.txt.gz
Wind_Speed
11 20 20 17 20 23 23 22 20 12 9 12 10 6 4 1 2 33 39 52 48 36 24 30 29 33 31 24 24 31 33 30
13 13 17 16 18 20 22 22 19 13 10 12 12 8 5 5 4 13 45 46 43 43 27 28 32 28 24 22 26 29 35 34
15 10 15 16 17 19 20 20 18 13 12 11 13 9 5 3 10 13 37 47 53 47 33 30 26 25 19 20 22 24 28 31
15 13 13 17 16 18 17 17 17 13 12 11 11 9 6 3 13 23 24 42 48 47 30 28 25 25 19 19 19 22 25 29
17 12 16 18 15 16 15 15 15 12 10 13 12 11 3 3 15 22 33 36 44 47 36 30 30 30 26 24 23 23 26 26
17 11 16 20 14 13 13 13 13 9 9 11 12 14 7 5 8 20 32 36 43 45 37 35 42 34 30 29 29 26 27 27
19 12 17 16 14 11 13 12 12 8 6 6 7 11 12 9 9 13 14 23 24 30 40 34 29 33 38 34 33 25 26 28
17 14 15 20 16 10 12 13 13 11 5 3 4 8 11 13 12 13 13 16 26 25 24 28 31 26 33 31 34 33 34 29
15 14 22 20 15 12 10 12 12 13 8 6 4 5 7 11 15 16 17 17 16 17 22 25 30 30 31 32 34 40 34 30
16 18 23 20 15 14 13 12 11 8 6 8 9 8 8 9 9 11 13 19 19 22 22 17 17 22 22 21 25 27 23 26
25 21 22 19 17 16 16 15 14 10 7 6 9 14 13 13 12 11 11 11 18 23 17 17 18 19 19 19 18 22 26 27
34 26 25 25 23 20 19 19 18 13 10 7 5 9 14 14 12 10 9 10 15 17 17 16 16 16 16 15 19 19 21 23
33 28 27 28 26 24 23 22 22 17 14 9 6 5 12 11 11 11 10 11 12 14 15 15 16 17 17 20 21 22 24 26
32 36 34 33 30 28 26 26 26 21 17 13 10 7 10 14 12 11 11 14 16 16 16 17 18 19 19 20 22 24 26 27
35 31 35 36 32 31 29 29 27 24 19 16 13 12 11 15 17 15 14 15 17 19 20 20 22 23 23 25 27 29 31 32
42 38 39 40 34 31 29 29 26 25 24 20 18 15 15 14 18 21 21 21 21 22 23 24 25 25 25 28 30 30 31 31
37 33 32 26 34 32 31 31 29 27 23 22 23 18 18 19 18 18 20 22 24 25 25 26 26 26 28 30 32 33 33 33
23 23 18 24 27 22 29 33 35 32 25 22 23 21 20 22 20 19 19 21 21 21 21 23 24 24 25 27 30 32 33 34
22 24 25 25 27 29 28 31 35 32 29 27 25 24 25 24 25 24 24 22 21 22 22 20 20 21 23 26 28 31 32 35

GFSFLT1_500_spd_105.txt.gz
Wind_Speed
23 23 22 21 21 26 21 19 20 21 18 17 17 18 17 13 7 8 21 25 36 37 49 45 35 28 32 31 28 26 30 32
28 21 17 21 21 22 20 17 17 20 19 18 18 18 17 13 7 16 13 30 42 46 48 38 26 30 31 31 28 26 29 31
36 27 17 21 24 21 20 16 15 18 18 20 18 18 17 12 15 11 28 31 48 45 39 23 28 29 33 33 26 24 24 28
27 25 21 21 23 21 19 15 15 16 16 20 17 18 16 14 14 19 23 42 50 49 36 26 25 27 26 23 24 22 25 29
27 23 21 22 22 19 17 14 14 15 15 19 16 19 18 16 16 26 18 40 46 47 43 31 29 27 28 27 23 23 24 25
35 28 26 25 23 19 16 14 15 13 13 17 15 18 18 13 15 19 23 21 45 42 46 35 34 37 38 32 27 23 25 25
38 32 29 29 22 18 14 14 16 13 12 14 14 15 18 13 15 16 27 21 36 37 41 38 35 37 33 32 32 30 28 29
26 28 27 30 22 17 13 15 16 14 14 14 12 11 15 16 11 10 21 24 33 31 27 28 32 30 26 34 39 35 32 28
25 30 22 26 20 15 15 16 14 12 12 13 13 9 13 16 14 9 15 26 25 26 29 29 30 33 32 27 33 35 32 28
32 30 28 27 19 17 18 19 15 13 10 9 11 12 10 11 15 20 18 15 21 26 21 24 19 23 23 22 28 35 37 38
37 35 33 28 20 19 19 20 18 16 14 12 11 14 14 13 13 13 16 21 21 26 21 18 20 20 21 24 30 35 34 41
39 39 33 30 24 24 23 22 20 19 17 14 12 12 16 16 14 13 12 14 18 25 20 21 24 18 18 19 17 18 18 22
42 41 36 32 28 29 27 24 22 23 21 17 14 13 14 17 16 13 12 11 12 15 23 24 22 18 19 19 20 20 22 24
43 44 39 36 32 32 31 29 28 27 24 21 19 16 14 17 21 17 14 12 11 12 15 21 20 18 19 20 21 21 22 24
47 44 43 37 35 35 36 34 32 31 29 24 21 20 16 17 22 22 21 19 17 17 17 18 19 21 22 22 23 24 25 26
47 44 44 43 42 39 37 37 37 35 32 27 25 23 20 17 17 23 23 22 22 21 21 21 21 20 22 24 26 29 30 30
51 48 42 42 42 37 38 39 37 34 33 31 31 27 25 23 19 18 21 25 25 24 24 25 25 26 27 30 32 33 33 34
50 47 44 40 38 41 40 40 37 35 30 29 29 28 29 27 26 23 21 22 24 24 26 27 27 29 32 33 33 33 34 34
24 37 42 41 33 29 34 32 36 29 30 33 31 28 28 31 29 26 26 25 23 23 24 25 26 26 27 28 29 29 29 30

GFSFLT1_500_spd_108.txt.gz
Wind_Speed
30 29 26 28 30 26 25 20 22 24 20 19 20 21 20 22 21 23 28 20 35 40 42 39 41 43 42 35 33 30 34 35
28 25 26 29 32 23 27 22 23 23 18 19 21 21 20 21 21 22 23 19 32 40 44 46 44 42 39 36 34 31 33 32
28 22 29 31 38 26 33 24 24 21 18 18 21 21 21 20 20 17 24 17 20 33 43 48 49 38 39 39 37 33 33 34
27 24 28 26 35 30 32 25 23 19 18 17 20 22 20 19 19 19 22 19 18 30 36 45 51 40 32 36 35 33 33 31
30 25 27 25 31 27 31 25 22 18 17 16 19 21 19 19 17 21 22 24 22 28 31 46 51 30 34 34 32 31 34 31
34 29 27 24 27 29 29 25 23 19 15 16 18 19 18 19 16 18 22 21 25 34 39 43 35 32 35 31 33 35 31 31
32 35 28 27 34 32 28 27 23 19 14 16 17 17 18 18 18 17 18 18 25 38 39 48 40 34 31 31 35 34 33 32
33 31 31 30 34 33 30 29 22 17 15 16 18 16 17 15 17 16 15 19 16 29 39 44 38 25 27 30 35 36 32 30
31 33 32 36 33 32 32 28 22 16 14 16 15 15 15 13 15 15 11 12 15 20 30 29 26 32 30 28 39 34 36 34
28 34 32 31 35 32 32 29 22 16 14 15 14 12 14 12 11 15 12 8 10 16 22 22 24 24 33 32 32 32 28 29
31 30 31 36 36 35 32 30 24 20 18 17 13 14 12 13 11 11 11 15 14 11 14 18 15 18 28 24 24 17 23 25
28 31 36 35 36 37 32 30 26 24 21 19 16 14 13 13 14 11 11 11 12 15 17 13 18 19 14 23 20 17 22 25
26 33 35 40 40 41 34 33 28 25 23 22 19 17 14 13 14 12 9 10 10 12 18 20 16 14 13 13 14 9 13 13
29 37 41 42 42 39 38 35 31 28 26 26 23 19 17 15 14 16 14 12 12 12 13 21 24 23 20 20 17 15 21 22
35 38 43 45 41 40 42 37 34 30 29 28 26 23 21 18 18 19 19 17 16 15 15 16 17 17 20 22 20 22 24 25
36 37 49 48 45 45 40 38 36 33 32 30 29 27 24 23 22 23 25 24 22 20 20 20 19 20 23 21 23 24 25 26
25 47 53 49 48 47 41 40 41 38 37 35 33 30 27 26 26 24 27 28 27 25 25 25 24 24 25 25 26 27 29 30
17 28 49 47 47 45 42 41 44 45 41 39 39 35 32 31 30 29 28 29 30 31 31 29 28 27 28 29 31 32 33 34
19 15 20 42 51 44 44 41 37 37 42 45 43 39 35 34 37 35 33 33 33 31 31 32 33 34 35 35 35 35 35 34

GFSFLT1_500_spd_111.txt.gz
Wind_Speed
41 34 29 25 28 25 27 24 25 28 27 26 26 25 22 20 22 23 20 20 25 21 25 29 33 36 41 39 39 34 36 32
42 39 33 30 26 27 27 26 27 30 30 27 27 24 20 20 23 24 20 21 23 24 29 32 33 40 37 37 40 40 36 33
44 42 35 35 27 26 29 30 31 33 35 29 28 24 19 20 23 22 21 19 24 19 37 42 43 37 40 42 44 44 38 36
44 41 37 35 29 26 28 30 31 35 34 30 28 24 20 19 21 21 21 21 24 18 16 37 43 42 41 44 45 45 39 36
40 40 37 35 33 29 28 29 32 35 34 30 28 23 19 18 18 20 21 21 23 20 19 28 45 46 45 48 45 45 40 36
39 39 37 37 34 30 32 28 31 31 35 30 29 23 18 18 17 18 20 18 18 19 20 29 39 46 47 47 48 45 41 41
42 40 38 36 33 32 31 28 30 32 31 30 29 25 19 18 16 17 20 17 16 15 20 28 36 47 50 50 45 45 41 38
40 41 37 36 37 37 36 32 32 34 29 30 30 25 21 18 15 15 16 14 14 13 21 24 34 51 49 39 41 41 40 39
40 40 37 36 35 40 37 34 36 36 31 31 29 23 19 18 13 12 12 11 12 19 20 30 34 52 47 41 38 40 38 40
40 39 36 31 35 37 35 35 37 36 32 30 28 21 15 18 14 11 9 10 10 9 12 33 34 48 31 22 27 27 37 39
38 37 31 30 35 35 37 35 38 35 31 32 27 21 16 16 17 13 8 7 10 7 7 22 30 18 22 26 29 24 20 23
33 33 30 32 33 35 37 35 38 31 33 32 27 23 18 17 16 16 11 7 7 6 6 7 22 20 22 25 29 35 29 23
31 33 32 38 35 36 38 40 39 32 35 32 28 25 22 18 14 16 15 10 10 11 13 9 13 17 23 17 16 22 28 22
29 34 33 38 34 40 45 43 39 34 35 32 29 25 24 19 16 13 15 13 11 12 12 19 20 18 14 17 15 15 21 18
31 35 36 34 31 38 45 44 38 36 35 32 30 28 25 22 19 14 13 15 12 11 11 11 16 21 20 18 19 20 22 24
34 34 34 34 30 40 43 44 39 37 37 35 33 29 26 25 23 20 15 17 17 15 14 14 15 17 18 19 20 22 24 23
24 32 31 29 29 44 48 46 41 40 41 38 36 31 28 28 27 25 22 19 22 22 21 20 19 19 21 23 24 25 28 26
23 25 23 26 43 47 49 45 42 40 40 40 39 36 34 31 30 27 25 24 23 25 26 26 27 27 28 28 28 29 27 26
31 31 24 26 38 50 52 47 44 41 37 40 39 38 40 34 32 29 28 28 28 28 28 28 29 31 32 31 31 32 32 32

GFSFLT1_500_spd_114.txt.gz
Wind_Speed
43 44 43 39 33 36 34 27 24 24 25 28 27 30 29 26 25 24 26 20 23 23 27 32 21 30 31 29 39 41 37 37
44 46 44 41 35 36 34 32 28 25 25 29 29 32 31 28 25 25 26 23 22 23 26 27 29 29 34 35 38 44 40 40
47 47 44 41 38 34 35 36 31 26 28 30 30 32 30 29 27 26 26 23 21 25 21 26 32 31 36 35 39 39 41 37
46 46 45 41 39 35 36 38 36 31 31 29 31 32 31 29 27 26 27 23 21 25 25 28 36 42 35 37 42 43 40 41
43 44 46 43 40 38 37 39 39 37 34 31 32 32 30 29 27 26 27 24 21 22 23 24 19 38 44 37 36 42 43 41
41 43 45 42 38 37 36 40 42 40 36 32 33 33 31 30 28 26 28 24 21 20 20 27 25 28 48 48 41 41 44 46
39 41 40 38 36 37 37 40 42 43 37 35 35 33 31 31 30 28 27 25 21 20 21 28 40 32 46 46 44 43 42 46
40 42 41 38 37 40 37 41 42 44 37 38 37 34 31 32 31 30 27 24 21 22 20 25 30 37 43 51 45 44 42 44
42 44 44 39 39 39 37 41 42 44 39 42 40 33 30 32 31 28 25 20 20 21 20 20 26 31 36 45 42 40 43 47
38 39 40 38 39 39 37 40 44 46 44 43 40 33 30 31 27 23 21 18 20 20 19 19 24 27 37 44 46 35 43 54
36 36 38 37 38 39 37 39 45 47 46 41 37 34 29 29 25 17 20 18 19 17 24 21 27 28 34 47 45 46 43 46
37 35 36 38 36 36 35 41 45 47 41 41 35 32 29 27 24 15 17 17 14 17 17 8 14 30 35 49 43 35 39 34
31 31 32 36 33 34 37 42 45 44 42 40 33 30 29 26 24 16 16 16 14 14 14 8 5 17 26 19 26 17 30 26
32 30 30 35 32 35 40 41 45 44 46 40 35 30 30 27 24 17 16 16 15 15 12 11 13 8 16 23 18 14 21 24
34 31 28 35 35 36 40 42 42 46 46 40 34 30 30 27 26 18 17 12 16 16 15 16 18 16 15 12 14 17 16 18
35 36 30 33 37 37 34 39 44 46 47 41 35 31 30 28 27 21 20 13 13 17 16 16 17 22 22 21 20 23 21 21
33 36 32 31 33 38 36 37 34 43 46 41 36 33 32 31 28 25 22 19 14 13 17 15 14 15 20 22 22 24 26 27
30 32 31 30 33 32 35 36 37 38 46 43 39 37 35 33 29 26 24 22 19 18 15 16 17 17 17 19 21 23 24 25
32 30 29 24 26 26 29 34 49 49 44 42 41 38 36 36 32 29 26 24 23 22 20 19 19 20 21 23 24 26 27 26

GFSFLT1_500_spd_117.txt.gz
Wind_Speed
48 44 43 42 40 35 34 33 35 34 34 29 29 26 24 24 23 26 27 25 25 24 26 24 26 28 28 30 36 38 36 39
48 46 47 44 42 36 35 34 34 34 34 31 30 32 28 25 24 26 28 26 27 26 28 27 25 31 29 31 31 31 35 37
47 48 48 44 42 38 36 35 35 33 33 32 32 35 31 28 25 25 28 28 29 27 28 29 26 27 33 35 35 37 32 35
49 48 46 43 43 40 38 35 34 32 33 33 35 36 33 30 25 25 28 29 32 28 28 30 27 28 29 34 38 38 31 36
48 46 44 45 42 41 39 37 36 33 35 34 38 36 36 32 27 27 29 29 31 29 28 29 28 27 30 31 39 40 36 36
49 46 46 44 43 41 39 39 36 33 36 36 38 37 40 35 32 29 29 30 31 31 28 29 28 27 33 30 40 42 39 39
47 46 44 44 45 41 42 39 37 34 36 37 38 40 43 39 34 31 30 31 32 31 30 31 30 31 33 30 39 46 44 42
45 43 43 43 43 41 38 38 36 36 36 39 38 41 43 41 36 33 30 31 32 32 31 31 32 34 34 38 35 48 47 39
42 45 45 43 43 40 37 35 35 38 39 40 40 41 43 41 39 34 31 31 31 30 31 30 33 37 35 33 41 47 48 40
42 41 44 44 43 42 40 38 35 36 37 38 41 42 44 41 40 35 31 29 30 27 28 30 32 34 32 33 36 48 51 46
37 41 43 45 44 41 41 39 38 37 36 38 43 44 45 42 40 32 30 28 27 25 24 28 28 30 39 33 38 51 51 46
40 40 40 42 43 40 39 38 37 36 35 39 45 47 46 42 37 30 28 28 24 21 23 24 26 34 30 29 36 37 42 45
38 39 40 38 38 37 36 36 36 34 35 40 47 48 43 41 35 28 26 26 22 17 21 20 26 20 27 27 31 36 46 43
33 35 36 33 34 34 33 34 34 33 37 42 47 45 43 39 33 26 25 25 19 16 21 18 21 10 13 19 25 35 30 31
33 33 32 30 30 32 31 32 32 33 38 40 44 43 43 39 30 26 25 24 18 15 19 19 19 16 8 17 18 23 24 21
32 32 33 31 27 29 30 31 32 35 36 39 40 44 45 42 30 29 26 24 18 13 17 18 17 18 15 12 12 20 16 12
32 32 33 32 29 28 30 30 34 36 37 37 40 43 44 43 32 29 27 25 20 14 14 17 16 15 16 18 16 15 15 17
28 31 32 33 32 28 28 32 34 36 35 36 38 40 45 44 34 31 28 25 23 17 15 16 19 16 14 15 19 18 19 19
25 27 30 35 33 29 28 30 31 32 35 38 38 37 40 44 35 31 29 26 24 21 19 18 18 18 18 18 18 19 19 19

GFSFLT1_500_spd_120.txt.gz
Wind_Speed
50 47 44 43 37 36 36 34 30 32 34 26 28 29 29 29 26 25 27 23 21 23 21 21 21 22 23 28 28 24 30 30
48 45 43 39 38 35 33 35 32 31 30 28 28 29 31 28 28 27 28 25 22 22 24 23 24 24 26 26 30 27 32 36
50 50 45 40 39 39 36 34 36 31 29 28 29 30 32 29 27 29 27 25 23 23 25 24 26 26 28 25 27 29 29 38
51 48 46 45 42 39 33 35 36 33 30 28 29 31 30 29 28 28 26 28 23 24 26 26 27 26 28 30 27 28 33 36
51 47 47 47 46 39 38 38 36 35 32 29 30 31 30 30 29 28 27 27 26 26 26 27 27 28 28 30 28 27 34 39
46 51 48 46 44 42 39 38 38 36 33 33 32 32 31 30 28 32 27 28 27 29 27 28 28 29 30 30 32 30 29 41
53 47 45 46 45 44 40 37 40 36 35 36 34 32 32 31 30 32 30 30 30 29 30 28 28 29 32 34 34 32 31 37
38 43 48 46 47 47 40 40 43 39 37 38 36 34 35 33 32 34 30 31 31 30 33 28 28 30 32 36 37 33 38 37
36 39 41 43 45 42 42 42 43 39 35 39 38 36 35 35 33 34 32 32 33 34 34 27 28 31 33 35 34 36 40 39
29 34 38 40 41 42 42 41 40 36 36 37 37 36 35 35 34 35 34 33 35 34 34 26 28 31 33 33 32 33 38 39
32 31 34 39 39 41 42 43 39 37 38 38 38 35 35 35 36 36 37 33 37 34 30 27 30 32 32 32 30 34 31 39
35 33 33 34 37 40 41 41 40 38 39 41 39 37 36 36 38 39 36 34 35 34 26 27 31 33 30 27 33 36 39 41
34 34 35 37 37 37 39 41 38 37 38 39 39 39 36 39 40 40 35 35 32 32 24 28 30 29 28 29 32 24 34 38
34 33 34 37 39 39 38 35 34 35 37 38 38 37 39 41 42 40 33 33 31 28 23 28 27 26 26 32 22 22 28 32
30 29 32 34 35 34 33 33 31 33 35 35 36 38 41 40 39 37 33 33 30 25 23 26 24 24 22 25 16 17 24 29
24 28 29 29 29 28 29 30 30 32 33 32 35 38 39 35 34 36 35 37 30 23 23 24 22 20 17 17 14 9 14 24
31 29 29 29 29 28 29 29 27 29 31 31 33 36 35 32 34 38 38 38 28 23 23 23 20 18 14 15 10 6 5 19
31 32 31 31 29 30 30 29 27 28 29 31 31 32 31 33 36 38 37 38 27 24 25 24 20 19 15 11 16 13 11 10
25 22 25 27 30 30 29 31 29 28 29 30 31 31 30 34 38 39 38 40 29 26 27 25 23 19 18 16 12 14 15 16